                ,  0.301,  0.397,  0.494,  0.590,  0.687,  0.784,  0.880,  0.977,  1.073,  1.170,  1.267,  1.363,  1.460,  1.556,  1.653,  1.749,  1.846,  1.943,  2.039,  2.136,  2.232,  2.329,  2.426,  2.522,  2.619,  2.715,  2.812,  2.909,  3.005,  3.102,  3.198,  3.295,  3.392,  3.488,  3.585,  3.681,  3.778,  3.875,  3.971,  4.068,  4.164,  4.261,  4.357,  4.454,  4.551,  4.647,  4.744,  4.840,  4.937,  5.034,  5.130,  5.227,  5.323,  5.420,  5.517,  5.613,  5.710,  5.806,  5.903,  6.000,  6.096,  6.193,  6.289,  6.386,  6.483,  6.579,  6.676,  6.772,  6.869,  6.965,  7.062,  7.159,  7.255,  7.352,  7.448,  7.545,  7.642,  7.738,  7.835,  7.931
2015/08/26 00:00,  999.0,  999.0,  999.0,  999.0,  999.0,  999.0,  999.0,  999.0,  999.0,  999.0,  999.0,  -13.4,  -13.5,   -8.0,  -14.6,  -14.6,   10.4,  999.0,  999.0,  999.0,  -10.6,   -2.6,    0.7,    1.0,    1.5,    1.7,    2.1,    5.0,    1.0,    2.1,   12.0,   16.8,   17.9,    7.9,    7.7,    8.0,    8.1,    7.8,   15.2,   11.8,    9.9,    8.3,    7.7,    9.6,   10.7,   10.9,   12.1,    8.8,    7.1,    9.9,  999.0,   12.2,    8.8,    8.6,    9.5,    7.3,  999.0,    9.7,  999.0,  999.0,  999.0,    9.4,    8.7,  999.0,  999.0,  999.0,  999.0,  999.0,  999.0,  999.0,  999.0,  999.0,  999.0,  999.0,  999.0,  999.0,  999.0,  999.0,  999.0,  999.0
2015/08/26 00:10,  999.0,   -6.8,  999.0,  999.0,  999.0,  999.0,  999.0,  999.0,  999.0,   -8.4,   -8.9,   -8.4,  999.0,   -6.5,   -6.3,   -6.2,   -7.6,  999.0,   -7.1,  999.0,  999.0,  999.0,  999.0,  999.0,  -11.0,  999.0,  999.0,   -0.0,   -6.3,  999.0,  999.0,  999.0,  999.0,  999.0,  999.0,  999.0,  999.0,  999.0,  999.0,   -1.4,    3.7,    4.5,    3.5,  999.0,    4.8,    5.7,    7.5,    8.4,    9.0,    9.4,    9.8,    9.0,    8.7,   10.5,   10.5,   10.3,  999.0,  999.0,  999.0,  999.0,  999.0,  999.0,  999.0,  999.0,  999.0,  999.0,  999.0,  999.0,  999.0,  999.0,  999.0,  999.0,  999.0,  999.0,  999.0,  999.0,  999.0,  999.0,  999.0,  999.0
2015/08/26 00:20,  999.0,   -0.9,   -2.3,   -2.3,  999.0,   -5.8,   -6.1,   -6.4,   -6.9,   -7.6,   -8.0,   -7.6,   -7.6,   -7.2,   -6.2,   -5.3,   -4.8,   -4.2,   -4.5,   -4.5,   -4.8,  999.0,  999.0,  999.0,   -3.5,   -2.1,   -1.1,    1.1,  999.0,  999.0,  999.0,  999.0,    0.3,  999.0,  999.0,  999.0,  999.0,    1.9,    1.2,    2.4,    5.9,    6.4,    6.2,    6.6,    7.7,    8.0,    8.6,    9.5,   10.3,   10.3,    8.4,    7.6,    6.9,    7.3,    9.6,   11.5,  999.0,  999.0,  999.0,  999.0,  999.0,  999.0,  999.0,  999.0,  999.0,  999.0,  999.0,  999.0,  999.0,  999.0,  999.0,  999.0,  999.0,  999.0,  999.0,  999.0,  999.0,  999.0,  999.0,  999.0
2015/08/26 00:30,  999.0,   -1.1,   -1.5,   -2.8,   -1.9,   -4.7,   -5.2,   -6.5,   -6.2,   -5.7,   -6.1,   -6.2,   -6.4,   -6.9,   -5.2,   -5.2,   -4.2,   -4.5,   -5.1,   -4.8,   -5.1,  999.0,  999.0,   -3.4,  999.0,  999.0,  999.0,  999.0,  999.0,  999.0,  999.0,  999.0,  999.0,   10.4,    8.3,   12.6,   12.4,   11.6,    8.8,    8.5,    7.0,    8.0,    7.0,    7.9,   15.0,   17.2,   11.2,   10.0,   10.1,   10.4,   10.1,    8.9,    7.0,    8.4,    9.2,    6.7,    7.2,    9.5,   11.6,  999.0,    8.3,    9.4,   10.4,   10.4,   10.4,   10.1,  999.0,  999.0,  999.0,  999.0,  999.0,  999.0,  999.0,  999.0,  999.0,  999.0,  999.0,  999.0,  999.0,  999.0
2015/08/26 00:40,  999.0,  999.0,  999.0,  999.0,  999.0,   -7.1,   -6.2,   -7.2,   -4.8,   -3.8,   -5.3,    1.7,   -2.0,   -2.7,   -2.5,    1.1,    1.3,   -4.4,   -6.3,   -1.0,    2.6,   -0.1,    0.4,    1.5,    2.1,    5.0,    5.4,    5.5,    4.3,    5.1,    0.9,    0.3,    0.0,    2.1,    5.8,    3.2,    3.1,  999.0,  999.0,  999.0,  999.0,  999.0,    3.9,   12.1,   10.9,    8.7,    6.0,    9.2,   11.6,   11.1,    9.8,   10.5,    9.4,    8.4,    7.3,    7.2,    8.3,    8.4,    8.4,    7.2,    6.5,    7.8,    7.0,    7.9,    7.8,    7.9,    8.0,    6.4,    7.0,    7.2,    7.5,  999.0,  999.0,  999.0,  999.0,  999.0,  999.0,   13.8,   13.4,   13.2
2015/08/26 00:50,  999.0,   -0.7,   -2.5,   -1.8,   -3.9,   -5.8,   -7.3,   -7.4,   -7.8,   -7.4,   -6.0,   -6.9,   -9.2,  -10.1,   -9.9,   -5.3,   -2.6,   -1.9,   -6.8,   -0.7,    2.3,    0.4,   -2.9,   -0.5,   -2.5,   -2.2,   -0.6,    0.2,    1.3,    3.1,    3.7,    4.9,    6.3,    7.3,    7.6,    5.8,    6.9,    6.3,    4.2,    3.6,    4.7,    4.0,    2.0,    8.0,    5.0,    5.1,    5.5,    6.7,    9.9,    9.0,    9.3,    9.6,   10.7,    9.9,   10.6,   10.2,   11.2,   11.5,   11.6,   10.4,   10.3,   10.4,   10.3,    9.3,   12.4,    6.1,    5.6,    5.8,    7.0,    8.1,    9.2,   10.4,   11.5,   10.6,   10.2,   10.3,   11.3,   11.9,   12.5,   12.7
2015/08/26 01:00,  999.0,  999.0,    1.2,  999.0,  999.0,  999.0,  999.0,  999.0,  999.0,  999.0,  999.0,  999.0,   -4.1,   -4.7,  999.0,  999.0,  999.0,   -8.7,  -12.0,  -13.4,   -8.3,  999.0,  999.0,  999.0,   -7.6,   -9.3,   -2.4,  -25.3,  999.0,  999.0,  999.0,  999.0,  999.0,  999.0,    6.8,  999.0,    9.3,  -16.3,  -17.5,  -15.7,   -8.9,   -8.7,   -8.0,    6.4,    7.4,    7.4,    8.0,    3.5,    3.7,    5.9,    5.9,    5.9,    8.1,    9.0,    8.7,    9.3,    9.0,    7.1,    6.2,    4.7,    1.1,    6.2,    6.6,    7.6,    7.1,  999.0,    7.5,  999.0,    4.9,    5.0,    6.4,    6.4,    6.8,    7.7,    9.6,   10.0,   11.0,   12.4,   13.0,   12.6
2015/08/26 01:10,  999.0,   -1.2,   -2.5,   -3.2,  999.0,   -5.4,   -6.6,   -7.1,   -7.2,   -6.7,   -5.8,   -5.7,   -5.8,   -5.9,   -6.1,   -5.9,   -5.1,   -4.9,   -5.2,   -5.1,   -4.7,   -4.5,  999.0,  999.0,  999.0,    0.7,    0.6,    2.7,    3.5,  999.0,  999.0,  999.0,  999.0,  999.0,  999.0,    5.7,  999.0,    6.0,    6.9,    7.8,    8.1,    8.6,    8.8,    9.2,    9.2,    9.5,    8.4,    9.2,    7.0,    6.5,    6.1,  999.0,  999.0,  999.0,  999.0,  999.0,  999.0,  999.0,  999.0,    6.8,    6.6,    7.3,    7.4,    8.3,    6.3,  999.0,  999.0,  999.0,  999.0,    7.5,    7.3,    7.8,    7.8,    9.2,   10.9,   10.9,   10.7,   11.8,   12.5,   12.7
2015/08/26 01:20,  999.0,  999.0,   -0.7,  999.0,   -3.3,   -4.8,   -5.7,   -5.6,   -5.7,   -5.9,   -6.1,   -5.6,   -5.5,   -5.7,   -5.5,   -5.9,   -5.8,   -4.3,   -4.5,   -4.4,   -3.9,   -5.0,  999.0,  999.0,   -0.4,    0.8,    0.9,    3.5,    5.1,    5.7,    6.6,    7.1,  999.0,  999.0,  999.0,  999.0,  999.0,  999.0,    7.1,    7.5,  999.0,    7.8,    9.5,    8.6,    8.3,    7.7,    7.4,    6.5,    6.3,    7.2,    6.7,    6.2,    6.4,    7.0,    6.2,    6.5,  999.0,  999.0,  999.0,    4.8,    6.0,  999.0,  999.0,  999.0,  999.0,  999.0,    6.7,    5.0,    3.7,    3.3,    3.4,    6.3,    8.1,    8.8,    9.1,    9.7,   11.2,   12.3,   13.7,   15.5
2015/08/26 01:30,  999.0,  999.0,  999.0,  999.0,   -4.0,   -4.9,   -5.5,   -6.2,   -7.2,   -6.9,   -6.9,   -5.9,   -6.0,   -5.5,   -5.1,   -5.0,   -4.6,   -3.3,   -3.8,   -3.4,   -3.9,  999.0,   -2.8,  999.0,  999.0,  999.0,    1.1,    1.2,  999.0,    4.5,  999.0,    5.3,    5.3,    5.6,  999.0,  999.0,  999.0,    6.5,    7.5,    8.5,    8.5,    8.8,    9.8,    9.3,    9.8,   11.5,   12.3,   11.7,   10.0,    9.8,   10.0,    9.9,    9.9,    8.2,  999.0,    7.7,  999.0,  999.0,  999.0,  999.0,  999.0,  999.0,  999.0,  999.0,    5.4,    5.7,    4.8,    4.5,    4.8,    4.1,    5.1,    6.8,    8.5,    9.0,    9.4,   10.1,   11.7,   13.3,   13.7,   14.2
2015/08/26 01:40,  999.0,  999.0,  999.0,   -3.7,   -5.0,   -5.6,   -6.3,   -5.8,   -6.0,   -6.1,   -6.7,   -6.7,   -6.8,   -6.2,   -5.1,   -4.4,   -4.0,   -3.0,   -3.1,   -3.2,  999.0,   -3.4,  999.0,   -1.5,  999.0,  999.0,  999.0,  999.0,  999.0,    3.2,    6.3,    7.3,    7.4,    7.3,    8.9,    8.0,  999.0,  999.0,  999.0,    8.5,    8.9,    9.6,   10.1,    9.2,    9.9,    9.3,    9.8,    9.6,   10.1,   11.6,   11.7,   11.0,   11.3,   11.5,  999.0,  999.0,  999.0,  999.0,  999.0,  999.0,  999.0,  999.0,  999.0,  999.0,  999.0,  999.0,  999.0,  999.0,  999.0,  999.0,   10.0,    8.7,    9.5,   10.1,   10.9,   12.8,   13.4,   15.0,  999.0,  999.0
2015/08/26 01:50,  999.0,  999.0,   -5.4,   -5.6,  999.0,   -6.2,   -6.2,   -6.0,   -5.9,   -5.9,   -6.6,   -6.9,   -6.8,   -6.2,   -5.6,   -4.3,   -3.2,   -3.1,   -4.3,   -3.8,   -3.7,   -3.8,   -3.6,   -2.3,   -1.3,  999.0,  999.0,    3.0,    4.0,    6.4,  999.0,    7.7,    9.2,   10.0,    9.8,    8.9,    8.6,    7.9,    7.2,    8.1,    8.7,    8.6,    9.1,    9.1,    9.0,    9.8,   10.0,    9.5,    8.6,    9.1,    8.9,    9.7,   10.2,   10.3,   11.3,  999.0,  999.0,  999.0,  999.0,  999.0,  999.0,  999.0,  999.0,  999.0,  999.0,  999.0,  999.0,  999.0,  999.0,  999.0,  999.0,    8.4,  999.0,   11.8,   13.0,   13.4,   15.1,  999.0,   14.1,  999.0
2015/08/26 02:00,  999.0,  999.0,   -0.9,   -3.6,  999.0,   -4.5,   -4.5,   -5.5,   -5.3,   -5.3,   -5.4,   -5.9,   -5.8,   -5.4,   -5.4,   -4.0,  999.0,   -1.9,   -3.1,   -2.4,   -2.9,   -3.8,   -3.4,   -1.8,   -1.0,    0.0,  999.0,    2.0,    3.9,    6.0,    7.4,    6.5,    7.8,    8.4,    9.6,    8.9,    7.8,    7.5,    6.9,    6.4,    6.7,    6.6,    6.9,    7.7,  999.0,  999.0,  999.0,  999.0,  999.0,  999.0,  999.0,    7.0,    7.5,    7.4,  999.0,  999.0,  999.0,  999.0,  999.0,  999.0,  999.0,  999.0,  999.0,  999.0,  999.0,  999.0,    9.6,    6.8,    8.5,    8.0,    8.0,    8.7,    9.9,   11.0,   12.4,   13.9,   14.7,   14.6,   14.3,   14.6
2015/08/26 02:10,  999.0,   -0.2,   -1.7,   -4.6,   -5.3,   -5.3,   -5.6,   -5.4,   -5.2,   -4.9,   -5.6,   -6.1,   -6.3,   -5.4,   -4.4,   -3.2,   -2.7,   -2.4,   -2.4,   -2.5,   -2.6,   -1.4,   -0.5,    0.3,    1.7,    2.6,    3.4,    3.7,  999.0,  999.0,  999.0,  999.0,  999.0,    7.5,    9.1,    9.6,    9.6,    7.9,    9.4,    8.0,    8.0,    6.1,    5.8,    5.6,    4.4,  999.0,  999.0,  999.0,  999.0,  999.0,    7.3,    7.1,    6.5,    6.1,    5.5,    5.8,    4.9,  999.0,  999.0,    6.8,  999.0,  999.0,  999.0,  999.0,    7.8,    6.6,    7.3,    5.3,    6.7,    8.3,    8.9,    9.0,    9.4,    9.9,   11.1,   11.0,   11.8,   13.3,   14.7,   14.7
2015/08/26 02:20,  999.0,   -1.3,   -3.7,   -1.3,   -0.7,   -3.6,   -7.1,   -7.4,   -6.7,   -6.4,   -6.5,   -5.8,   -9.1,   -5.6,   -8.6,   -6.8,   -2.1,    2.7,    5.0,    4.6,    2.6,    1.3,    4.5,    1.2,    2.7,    4.8,    7.0,    5.3,    4.2,    5.5,    9.8,   11.9,    8.8,   10.3,   10.2,   10.1,    8.8,    8.3,    7.8,    7.1,    9.2,    8.1,    5.7,    5.1,    4.8,  999.0,  999.0,    3.0,    2.9,  999.0,    4.2,    3.8,    6.3,    4.0,    3.3,    2.7,    4.2,    6.9,    8.0,    7.8,    7.7,    6.8,    6.5,    6.8,    9.0,  999.0,  999.0,  999.0,  999.0,   10.4,   10.5,   10.5,    9.6,   10.5,    9.8,   10.9,   11.5,   13.4,   14.7,   14.5
2015/08/26 02:30,  999.0,   -4.5,   -1.5,   -4.5,   -4.1,   -4.7,   -3.9,   -6.3,   -6.5,   -6.4,   -6.1,   -6.6,   -6.7,   -8.5,   -5.9,   -4.3,   -2.1,   -3.7,  999.0,    0.8,   -1.0,    1.2,    2.5,    4.2,    5.2,    6.1,    6.2,    8.5,    6.9,    8.3,   10.6,   14.0,   13.5,   13.4,   11.9,   12.2,   13.4,   12.7,   12.7,   12.6,    9.3,    6.6,    3.0,    7.7,  999.0,  999.0,    2.7,    6.3,  999.0,  999.0,  999.0,  999.0,  999.0,  999.0,  999.0,  999.0,  999.0,  999.0,  999.0,  999.0,  999.0,    6.8,    8.6,  999.0,    9.2,  999.0,    9.2,    9.0,   10.0,   10.4,   10.9,   12.3,   12.9,   13.3,   13.2,   13.1,   13.8,   14.7,   16.1,   16.7
2015/08/26 02:40,  999.0,  999.0,   -1.3,   -4.7,   -5.6,   -6.1,   -5.6,   -5.0,   -6.0,   -6.0,   -5.7,   -5.8,   -6.3,   -5.5,  999.0,   -4.7,   -1.6,   -2.0,   -2.3,   -3.2,  999.0,  999.0,  999.0,  999.0,  999.0,    1.7,    4.1,    6.2,    8.1,    8.3,    9.4,   10.7,   11.3,   10.9,   10.8,   11.1,  999.0,  999.0,  999.0,  999.0,  999.0,  999.0,  999.0,  999.0,  999.0,  999.0,  999.0,  999.0,  999.0,  999.0,  999.0,  999.0,  999.0,  999.0,  999.0,  999.0,  999.0,  999.0,  999.0,    5.3,    4.7,    6.2,    5.1,    7.2,    8.1,    8.4,    9.2,    8.5,    9.3,   10.1,   10.9,   12.1,   13.3,   14.6,   16.0,   16.1,   17.0,   17.8,   17.9,   17.8
2015/08/26 02:50,  999.0,   -1.1,  999.0,   -5.0,   -6.0,   -5.0,   -4.4,  999.0,  999.0,  999.0,   -6.2,   -6.1,   -5.9,   -5.1,   -4.8,   -3.7,   -0.9,  999.0,  999.0,    3.7,  999.0,  999.0,    7.4,  999.0,    5.6,    4.6,    4.3,    3.1,    5.4,    5.6,    8.0,    6.8,    7.3,    9.0,    8.9,    9.1,    9.4,   10.2,   11.5,   10.7,   10.8,   10.7,   10.0,    8.0,    6.8,    5.4,    5.1,    5.6,    5.4,    4.8,    4.2,  999.0,  999.0,    5.8,  999.0,    1.8,  999.0,  999.0,    3.6,    3.7,    5.1,    6.2,    7.2,    9.1,    9.9,    9.9,    9.6,   10.5,   11.0,   11.1,   11.1,   11.7,   13.2,   14.3,   15.4,   16.5,   17.6,   17.3,   17.2,   16.9
2015/08/26 03:00,  999.0,   -6.7,   -6.5,   -5.4,   -6.2,   -5.2,   -3.4,   -1.6,   -4.2,   -4.6,   -4.4,   -4.7,   -2.9,   -2.9,   -3.0,    1.2,   -0.7,   -0.9,   -0.5,   -1.7,   -3.6,   -2.4,   -0.4,    0.9,    0.8,    2.6,    5.3,    6.1,    8.5,    8.7,    9.2,    9.0,    8.0,    8.2,    8.2,    8.3,    8.1,    8.3,    8.8,    8.8,    9.1,    9.6,    8.6,    7.7,    7.2,  999.0,    4.3,    6.0,    5.1,  999.0,  999.0,  999.0,  999.0,  999.0,  999.0,  999.0,  999.0,    4.6,    5.0,  999.0,    6.7,    8.0,    8.2,    8.9,    9.8,   10.5,   11.3,   11.5,   11.6,   11.8,   11.4,   11.4,   12.2,   13.3,   14.4,  999.0,  999.0,  999.0,  999.0,  999.0
2015/08/26 03:10,  999.0,  999.0,  999.0,   -4.9,   -6.6,   -7.0,   -6.0,   -6.0,   -6.5,   -6.8,   -7.2,   -6.5,   -5.6,   -4.8,   -2.6,   -0.7,   -1.3,   -3.3,   -2.8,   -0.8,   -1.4,   -1.3,   -0.3,    0.8,    2.1,    3.0,    4.3,    5.6,    7.7,    7.2,    4.2,    5.8,    6.3,    7.0,    8.1,    5.6,    6.4,    7.5,    7.8,    7.8,    7.2,    8.1,    7.9,    7.1,    6.8,    5.3,    6.7,    7.0,    6.2,    6.1,    5.4,    5.1,    5.3,    6.7,  999.0,    8.1,  999.0,   10.4,   10.1,    7.7,    6.1,    7.9,    9.5,   10.4,  999.0,  999.0,  999.0,  999.0,  999.0,  999.0,  999.0,  999.0,    9.3,   10.1,   11.2,   12.7,  999.0,   14.2,  999.0,  999.0
2015/08/26 03:20,  999.0,   -2.7,   -3.8,   -5.1,   -6.1,   -7.0,   -6.3,   -5.8,   -6.2,   -6.4,   -6.2,   -5.9,   -6.0,   -5.4,   -2.8,   -0.9,   -0.9,   -1.9,   -0.4,   -0.8,   -1.3,   -0.9,   -1.1,    0.6,    2.1,    3.5,    4.9,    5.8,    7.7,    8.1,    8.1,    7.9,    7.6,    8.0,    8.0,    7.6,    6.8,    6.8,    6.2,    5.8,    5.6,    5.2,    6.3,    7.2,  999.0,  999.0,    5.2,    6.6,    5.9,    6.3,    7.1,    7.6,    7.6,    8.2,    8.8,    9.3,    9.9,   10.4,   11.6,   11.7,   12.0,   11.5,   11.2,   12.2,   13.1,  999.0,  999.0,  999.0,  999.0,  999.0,  999.0,  999.0,  999.0,  999.0,  999.0,  999.0,  999.0,  999.0,  999.0,  999.0
2015/08/26 03:30,  999.0,    5.3,    2.9,    1.4,    2.0,   -2.1,   -5.0,   -5.4,   -4.4,   -5.9,   -6.6,   -5.8,   -5.7,   -4.3,   -2.3,   -1.5,   -1.5,   -0.5,    0.6,    0.4,    0.7,    1.5,    2.0,    3.2,    3.7,    4.3,    6.1,    7.3,    8.2,    8.8,    9.4,    9.9,    9.7,    9.7,    9.1,    8.5,    8.1,    7.9,    8.1,    9.7,    9.8,   11.6,   11.3,    9.5,  999.0,  999.0,  999.0,    8.5,    7.2,    6.7,    6.4,    6.9,    7.2,    8.2,    9.1,    8.2,    8.4,    8.4,    9.6,    9.9,    8.0,    9.2,    9.5,   10.0,   10.0,   10.8,   11.0,   11.3,   10.7,   10.7,   10.5,  999.0,    9.8,  999.0,  999.0,  999.0,  999.0,  999.0,  999.0,  999.0
2015/08/26 03:40,  999.0,   -1.2,   -2.2,   -4.7,   -5.8,   -6.0,   -6.5,   -6.3,   -7.1,   -7.4,   -6.2,   -5.7,   -5.2,   -3.6,   -1.6,   -0.7,   -0.8,   -1.1,    0.5,    0.3,    0.0,    0.4,    1.0,    1.5,    1.7,    3.5,    3.4,    4.7,    6.1,    7.6,    7.3,    6.6,    7.2,    7.4,    8.9,   10.1,   10.3,   10.4,   10.2,   11.2,    8.6,    8.9,   10.1,    9.4,  999.0,  999.0,   12.0,   10.9,    8.8,    8.2,    7.3,    6.7,    6.5,    6.6,    6.5,    7.0,    8.6,    9.7,   10.0,   10.0,   10.0,    9.7,    8.1,    7.7,    8.4,    8.7,    9.4,    9.5,    9.7,   10.2,   10.2,   10.1,    9.0,    8.6,    8.4,    9.1,    9.6,   11.0,   12.9,  999.0
2015/08/26 03:50,  999.0,   -2.8,   -4.4,   -3.8,   -5.9,   -6.4,   -5.4,   -7.3,   -6.8,   -7.2,   -6.0,   -5.8,   -5.1,   -4.2,   -3.0,   -2.5,   -2.0,   -2.5,   -2.2,   -2.7,   -2.2,   -1.5,   -1.5,    0.7,    1.1,   -3.8,    0.3,    3.8,    4.1,    1.9,    5.9,    6.1,    5.0,    5.6,    7.6,    9.3,    7.9,   10.7,   12.4,   11.8,   12.4,   10.9,    7.4,   11.2,   12.9,   12.7,   12.2,   11.3,   10.7,    9.8,    9.1,    8.7,    8.3,    7.5,    7.4,    7.2,    7.3,    7.9,    8.9,   10.3,   10.2,   10.4,   10.6,   10.5,   10.5,   10.4,    9.9,    9.8,    9.6,    9.3,    9.1,    9.0,    8.7,    8.8,    8.8,    9.2,    9.9,   10.4,   10.8,   11.5
2015/08/26 04:00,  999.0,    0.2,    2.2,   -0.6,   -3.3,   -5.3,   -6.0,   -5.6,   -7.3,   -7.5,   -7.4,   -6.3,   -5.2,   -4.5,   -3.3,   -1.5,   -3.3,  999.0,  999.0,  999.0,   -1.6,   -2.1,  999.0,  999.0,  999.0,    3.3,    5.6,    8.2,  999.0,    6.1,    6.4,    6.5,    7.6,  999.0,    8.0,    8.8,  999.0,    8.6,   10.1,  999.0,  999.0,  999.0,   11.2,   11.7,   12.4,   12.4,   13.1,   14.3,   14.0,  999.0,  999.0,  999.0,  999.0,    8.9,   11.1,    8.5,    9.6,    9.8,   10.4,    9.4,    8.9,    8.3,    8.7,    9.1,    9.3,    9.5,   10.0,    9.1,    7.9,    7.2,    6.9,    7.0,    7.3,    7.9,    9.1,   10.4,   11.1,   11.7,   13.0,   13.0
2015/08/26 04:10,  999.0,   -0.2,    0.0,    0.0,   -0.0,   -4.3,   -5.6,   -6.5,   -7.1,   -7.8,   -7.3,   -6.8,   -5.8,   -5.1,    0.1,   -0.5,  999.0,  999.0,  999.0,   -7.6,   -7.9,   -6.6,  999.0,  999.0,  999.0,  999.0,    2.3,  999.0,    3.6,    4.9,    6.4,    6.7,  999.0,    7.1,  999.0,  999.0,    9.7,   12.4,   12.3,   12.6,   13.2,   14.2,   14.7,   15.0,   14.7,   13.7,  999.0,  999.0,  999.0,   11.2,   10.6,   11.7,   11.1,   12.1,   12.6,  999.0,  999.0,  999.0,  999.0,  999.0,  999.0,  999.0,   12.4,   10.9,   10.2,    9.6,    9.5,    9.5,    9.1,    9.7,    9.9,   10.3,   10.4,    9.8,    9.1,    9.5,   10.1,   11.0,   12.1,  999.0
2015/08/26 04:20,  999.0,    0.0,    0.2,   -0.1,    0.2,  999.0,   -3.9,   -6.1,   -6.8,   -7.1,   -7.2,   -6.9,  999.0,  999.0,    0.0,    0.4,    0.3,    0.2,  999.0,   -5.5,  999.0,  999.0,  999.0,  999.0,  999.0,    2.1,    3.4,    3.9,    4.0,    4.6,    5.8,    5.5,    6.0,    7.0,    7.5,    7.1,  999.0,  999.0,  999.0,  999.0,   12.1,   13.6,   14.2,   13.4,   13.2,   13.9,   13.6,  999.0,  999.0,   13.4,   12.6,  999.0,  999.0,  999.0,  999.0,  999.0,  999.0,  999.0,  999.0,  999.0,  999.0,  999.0,  999.0,  999.0,  999.0,  999.0,  999.0,  999.0,  999.0,  999.0,  999.0,  999.0,  999.0,  999.0,  999.0,  999.0,  999.0,  999.0,  999.0,  999.0
2015/08/26 04:30,  999.0,    0.0,   -0.2,   -0.4,   -0.3,  999.0,  999.0,   -6.3,   -7.8,   -8.6,   -7.6,   -6.8,    0.1,  999.0,    0.1,   -0.3,    0.8,    0.2,  999.0,   -0.1,  999.0,   -6.4,   -7.7,  999.0,   -8.1,  999.0,  999.0,    1.8,    3.4,    4.2,    5.5,    6.9,    6.9,    7.3,    7.1,    7.1,    8.4,  999.0,  999.0,  999.0,  999.0,    9.7,   10.7,   12.0,  999.0,   11.6,   10.5,   10.9,   11.5,  999.0,   12.1,   14.2,   14.5,  999.0,  999.0,  999.0,  999.0,  999.0,  999.0,  999.0,  999.0,  999.0,  999.0,  999.0,  999.0,  999.0,  999.0,  999.0,  999.0,  999.0,  999.0,  999.0,  999.0,  999.0,  999.0,  999.0,  999.0,  999.0,  999.0,  999.0
2015/08/26 04:40,  999.0,  999.0,  999.0,  999.0,  999.0,  999.0,  999.0,  999.0,   -7.2,   -8.7,   -8.0,   -6.9,   -5.6,   -4.0,   -3.2,   -2.7,   -2.3,   -3.8,   -4.3,   -5.4,  999.0,   -6.3,  999.0,   -6.7,   -7.3,  999.0,  999.0,  999.0,  999.0,    5.3,    6.6,    7.2,    6.4,    6.1,    6.1,   11.1,    6.8,    7.1,    7.7,  999.0,  999.0,  999.0,  999.0,  999.0,    8.1,   10.8,   12.2,   11.4,   12.0,   13.0,   13.8,   13.8,   12.7,   11.3,   10.9,  999.0,  999.0,  999.0,  999.0,  999.0,  999.0,  999.0,  999.0,  999.0,   -0.6,  999.0,  999.0,  999.0,  999.0,  999.0,  999.0,  999.0,  999.0,  999.0,  999.0,  999.0,  999.0,  999.0,  999.0,  999.0
2015/08/26 04:50,  999.0,  999.0,  999.0,  999.0,   -5.3,   -6.1,   -8.3,  999.0,  999.0,   -2.7,  999.0,  999.0,    6.1,    7.7,    3.0,    6.9,    7.3,   -1.8,    7.3,    4.1,    5.4,  999.0,   -0.4,  999.0,  999.0,   -2.7,  999.0,   11.9,  999.0,    1.4,    6.9,    1.0,    1.0,    1.4,  999.0,  999.0,    5.1,    4.9,    7.9,   10.6,   10.0,    9.4,    6.5,    7.6,    8.0,    7.6,    8.7,    7.2,    6.8,    9.0,    9.7,   10.1,   12.5,   11.8,   11.9,   12.9,   12.9,   13.7,  999.0,  999.0,  999.0,  999.0,  999.0,  999.0,  999.0,  999.0,  999.0,  999.0,  999.0,  999.0,  999.0,  999.0,  999.0,  999.0,  999.0,  999.0,  999.0,  999.0,  999.0,  999.0
2015/08/26 05:00,  999.0,   -1.6,   -2.6,   -4.2,   -5.7,   -6.6,   -7.5,   -8.8,   -9.7,   -9.7,   -8.5,   -6.9,   -5.5,   -4.5,   -3.5,   -2.9,   -3.1,   -2.6,  999.0,   -2.7,  999.0,    6.3,  999.0,  999.0,  -12.3,  -11.2,  -10.2,   -5.7,    3.3,    3.9,    5.5,    2.3,    4.0,    3.3,    5.2,    4.8,    5.7,    6.2,   11.1,   10.0,    9.8,    9.8,    9.1,   11.3,    9.6,   10.5,    9.2,    9.1,   11.2,   11.0,   11.8,   12.0,   12.7,   12.4,   12.6,   13.2,   12.6,   11.3,    9.9,   10.4,   12.6,   14.0,   11.5,   10.9,   11.4,  999.0,  999.0,  999.0,  999.0,   16.0,   17.3,   18.4,  999.0,  999.0,  999.0,  999.0,  999.0,  999.0,  999.0,  999.0
2015/08/26 05:10,  999.0,   -2.1,   -1.9,   -3.8,   -4.8,   -6.8,   -8.3,   -9.1,   -8.8,   -8.2,   -7.1,   -6.5,   -6.8,   -6.0,   -4.0,   -4.0,   -1.7,   -1.6,   -0.8,  999.0,  999.0,  999.0,  999.0,  -50.3,  -40.7,  -37.8,  -32.0,  -37.4,  -43.2,  -27.9,  -28.0,    3.7,  -13.5,  -13.3,  -12.9,    4.9,    5.8,    7.4,    7.9,    7.7,    7.6,    8.8,  999.0,  999.0,  999.0,    7.4,    9.0,    9.7,   10.0,    9.5,    9.6,    9.4,    9.6,    9.7,    9.6,   10.0,   10.3,   10.3,   10.4,   10.6,   10.9,   11.6,   11.7,   11.8,   11.8,   11.3,   11.9,   11.7,   12.6,   13.3,   15.3,   15.8,  999.0,  999.0,  999.0,  999.0,  999.0,  999.0,  999.0,  999.0
2015/08/26 05:20,  999.0,   -0.4,   -1.8,   -2.0,   -4.5,   -6.4,   -7.8,   -8.1,   -8.5,   -8.5,   -7.9,   -6.4,   -4.8,   -2.9,   -1.0,   -0.6,   -0.7,   -0.8,   -1.5,  999.0,  999.0,  999.0,  -51.9,  -50.0,  -51.7,  -50.4,  -49.6,  -50.0,  -50.9,  -51.2,  -51.5,  -51.4,  -50.5,  -50.1,  -48.8,  999.0,  999.0,  999.0,  999.0,  999.0,  999.0,  999.0,  999.0,    4.6,    5.8,    6.7,    5.7,    6.5,    7.0,    7.4,    8.0,    8.5,    8.4,    8.4,    8.4,    8.8,    9.1,    9.6,    9.6,   10.6,   11.2,   12.0,   12.6,   12.7,   13.3,   13.8,   14.0,   14.6,   14.6,   15.1,   16.0,   16.6,   16.9,   17.4,   16.3,   16.6,   16.5,   16.5,   17.0,   17.3
2015/08/26 05:30,  999.0,  999.0,   -3.9,  999.0,   -4.3,   -5.2,   -6.3,   -8.1,   -8.7,   -8.4,   -7.8,   -6.7,   -5.0,   -2.9,   -1.2,   -0.0,   -0.9,  999.0,  999.0,  999.0,  999.0,  -53.9,  -51.4,  -51.0,  -50.9,  -50.5,  -48.8,  -47.7,  -47.2,  -46.9,  -48.8,  -49.3,  -49.5,  -50.3,  -50.8,  -51.7,  -52.4,  -52.3,  -52.2,  -51.0,  999.0,  999.0,  999.0,  999.0,    6.3,    6.7,    7.9,    8.0,    7.7,    7.4,    7.7,    7.9,    8.2,    8.8,    9.5,   10.5,   11.3,   12.4,   12.2,   12.3,   12.4,   12.7,   12.9,   12.9,   13.4,   13.8,   14.5,   14.9,   15.2,   15.1,   15.1,   15.2,   15.8,   15.9,   16.1,   16.1,   16.7,   16.7,   17.1,   17.3
2015/08/26 05:40,  999.0,  999.0,   -3.4,   -5.0,   -5.7,   -6.9,   -8.2,   -8.7,   -8.1,   -7.7,   -6.9,   -5.7,   -4.6,   -3.6,   -2.4,   -1.4,   -1.1,  999.0,  999.0,  999.0,  999.0,  -52.6,  -52.8,  -53.2,  -52.6,  -51.8,  -50.9,  -49.1,  -43.0,  -42.1,  -42.1,  -42.4,  -43.0,  -43.5,  -44.0,  -44.5,  -45.1,  -40.2,  -40.0,  -32.9,  999.0,  999.0,  999.0,    2.8,    1.4,    3.2,    5.3,    7.0,    8.1,    9.3,   10.4,   10.9,   11.0,   10.8,   10.6,   10.3,   10.2,   10.0,   10.0,    9.6,    9.8,   10.0,   10.8,   11.6,   12.1,   12.4,   13.4,   14.3,   15.1,   15.6,   15.7,   16.2,   16.2,   16.2,   16.7,   16.8,   16.5,   16.5,   16.8,   17.0
2015/08/26 05:50,  999.0,   -1.4,   -2.6,   -4.1,   -5.4,   -6.0,   -7.2,   -7.9,   -8.9,   -8.6,   -7.3,   -5.6,   -4.3,   -3.3,   -2.5,   -2.1,   -1.1,    0.6,  999.0,  999.0,  999.0,  -50.9,  -50.1,  -50.3,  999.0,  999.0,    3.9,    4.9,    5.3,    5.9,    7.0,    7.6,    6.4,    4.7,    4.1,    3.0,    1.6,    1.3,    1.6,    2.5,    3.9,    3.7,    6.4,    5.2,    9.5,   10.4,   10.1,   10.4,   10.3,    9.5,    7.6,    6.7,    7.1,    8.3,    9.4,   10.0,   10.4,   11.3,   11.6,   12.2,   13.1,   13.4,   14.0,   14.5,   14.9,   15.5,   15.9,   16.1,   16.6,   16.4,   16.6,   16.7,   16.8,   17.3,   16.4,   14.1,   11.7,  999.0,  999.0,  999.0
2015/08/26 06:00,  999.0,   -0.8,   -2.5,   -3.7,   -5.2,   -6.9,   -7.8,   -8.6,   -9.3,   -9.8,   -8.9,   -7.0,   -5.7,   -4.3,   -3.2,   -1.7,   -0.8,    1.0,    2.0,    2.9,    3.8,    4.7,    5.1,    4.0,    4.4,    4.7,    3.6,    4.5,    5.6,    6.4,    7.3,    6.6,    6.5,    5.4,    4.8,    3.9,    3.7,    3.4,    3.4,    2.6,    4.4,    5.2,    5.0,    6.9,    5.9,    6.1,  999.0,  999.0,    5.1,    5.0,    5.8,    7.3,    7.9,    8.6,    9.4,   10.2,   10.8,   11.4,   12.5,   13.6,   14.5,   15.2,   15.1,   15.3,   14.8,   14.8,   15.3,   15.1,   16.1,   16.1,   15.5,   14.8,   16.8,  999.0,  999.0,  999.0,  999.0,  999.0,  999.0,  999.0
2015/08/26 06:10,  999.0,    0.3,   -1.6,   -3.2,   -4.7,   -5.8,   -7.5,   -8.2,   -8.4,   -8.5,   -7.0,   -4.9,   -4.5,   -3.5,   -2.0,   -1.3,   -1.2,    0.3,    0.7,    2.1,    2.6,    2.4,    3.7,    3.6,    1.8,    2.5,    4.4,    5.2,    6.0,    6.3,    5.6,    5.6,    3.6,    2.1,    1.2,    1.7,    1.8,    2.1,    2.1,  999.0,  999.0,    3.3,    4.3,    4.0,    1.3,  999.0,    6.3,    8.1,    9.6,   11.0,   11.8,   12.7,   12.8,   12.7,   12.5,   12.6,   13.0,   13.5,   13.2,   13.1,   12.5,   12.2,   13.1,   13.2,   13.5,   13.7,   14.2,   14.3,   14.7,   14.5,   14.7,   15.2,   15.6,   15.4,   13.6,   13.7,   14.2,   14.9,   14.7,   15.1
2015/08/26 06:20,  999.0,   -1.9,   -3.0,   -4.2,   -6.3,   -7.0,   -7.5,   -8.8,   -9.4,  -10.2,   -8.8,   -7.2,   -5.3,   -3.3,   -1.7,   -0.7,   -1.3,   -1.1,    0.6,    1.3,    2.5,    2.9,    3.2,    2.7,    2.3,    2.5,    2.8,    3.0,    4.5,    4.3,    6.0,    5.8,    5.2,    6.9,    5.6,    5.2,    8.1,    8.8,    6.6,    8.9,   12.6,   14.1,   11.6,   10.0,   11.3,   15.1,   14.8,   14.8,   15.3,   15.2,   15.6,   16.0,   16.5,   16.9,   17.2,   17.6,   17.5,   17.1,   17.5,   18.6,   19.2,   19.2,   19.1,   18.3,   17.9,   18.2,   17.6,   16.6,   17.1,   16.0,   16.3,   15.6,   15.7,   14.5,   15.5,   16.2,  999.0,  999.0,  999.0,  999.0
2015/08/26 06:30,  999.0,    1.5,   -0.6,   -2.5,   -3.6,   -5.9,   -7.4,   -8.9,   -9.8,   -9.8,   -9.5,   -8.0,   -6.2,   -4.5,   -2.4,   -1.5,   -1.7,   -0.6,    0.6,    1.6,    2.6,    2.3,    1.3,    0.6,   -0.9,    1.0,    2.2,    1.3,    2.5,    2.6,    2.7,    2.5,    2.7,    2.1,    2.2,    2.8,    5.8,    5.1,    5.5,    6.3,  999.0,  999.0,  999.0,    9.4,    9.7,   10.5,   10.8,   14.4,   14.6,   14.8,   15.5,   15.9,   15.9,   16.2,   16.7,   16.6,   16.8,   16.8,   16.9,   17.5,   17.8,   17.4,   16.9,   15.7,   14.8,   14.3,   14.1,   14.3,   14.4,   14.6,   14.9,   14.6,   15.1,   16.1,   16.0,   15.8,  999.0,  999.0,  999.0,  999.0
2015/08/26 06:40,  999.0,    1.2,   -0.3,   -2.0,   -4.3,   -6.5,   -7.8,   -8.7,   -9.5,   -9.3,   -9.0,   -7.6,   -6.1,   -4.4,   -2.4,   -1.4,   -1.3,   -0.5,    0.7,    1.6,    1.8,    2.0,  999.0,  999.0,    0.8,    0.1,   -1.2,   -0.9,   -0.3,    0.3,   -1.0,    0.1,    0.1,   -0.6,   -0.5,    1.0,    0.8,    2.2,    2.3,    2.0,  -10.6,  -10.0,    7.1,    8.3,   10.9,   10.9,   12.0,   13.0,   12.9,   12.9,   13.1,   12.4,   12.3,   12.8,   13.3,   13.9,   14.4,   14.8,   15.5,   16.5,   17.4,   19.1,   18.4,  999.0,  999.0,  999.0,   15.1,   15.9,  999.0,  999.0,  999.0,  999.0,   17.1,  999.0,   14.9,   14.9,  999.0,  999.0,  999.0,  999.0
2015/08/26 06:50,  999.0,   -1.0,   -1.7,   -2.5,   -4.4,   -6.8,   -7.8,   -8.6,   -9.2,   -9.2,   -7.5,   -6.3,   -4.9,   -3.5,   -1.8,   -0.4,   -0.3,  999.0,  999.0,  999.0,  -53.0,  -54.0,  -54.3,  -55.3,  -55.1,  -55.4,  -55.8,  -55.8,  -43.5,  -42.1,  -36.9,  -27.8,  -27.7,  -28.9,  -54.2,  -52.1,  -51.7,  -52.1,  -51.5,  -49.4,  -49.0,  -48.3,  -46.6,  999.0,  999.0,  999.0,  999.0,   13.1,   14.4,   14.3,   14.5,   14.3,   13.9,   14.4,   15.0,   15.0,   15.7,   16.3,   16.9,   16.9,   16.7,   16.6,   15.9,   15.4,   15.2,   15.2,   15.3,   15.1,   15.2,   15.3,   14.9,   14.9,   13.6,   13.9,   13.4,   14.3,  999.0,  999.0,  999.0,  999.0
2015/08/26 07:00,  999.0,    2.2,   -1.2,   -1.9,   -3.9,   -5.5,   -6.6,   -8.5,   -8.6,   -9.4,   -7.7,   -7.4,   -5.6,   -3.3,   -2.0,   -0.7,   -0.8,   -0.7,  999.0,    0.9,    1.2,  -36.9,  -38.5,  -37.1,  -27.2,    2.3,   -0.7,   -2.3,   -1.5,    0.5,    2.9,    2.9,    3.3,    2.6,    3.6,  -14.1,  -21.8,  -19.7,  -18.9,  -18.3,  -28.4,  -44.5,  -43.2,  999.0,  999.0,  999.0,  999.0,   14.7,   14.4,   13.4,   12.5,   12.2,   12.4,   13.1,   13.0,   13.3,   13.9,   13.4,   13.2,   13.7,   13.4,   13.1,   13.0,   13.6,   13.2,   13.6,   13.5,   13.9,   14.0,   13.8,   13.8,   13.4,   13.6,   13.4,   11.6,   13.1,  999.0,   15.3,   15.7,  999.0
2015/08/26 07:10,  999.0,   -0.2,   -1.6,   -3.0,   -3.6,   -5.1,   -5.6,   -8.1,  -10.1,  -11.3,  -10.7,   -7.8,   -5.4,   -3.1,   -1.6,   -0.7,   -0.1,   -0.1,   -1.2,   -2.2,   -1.3,   -1.5,   -0.3,   -0.3,    0.6,    1.7,    1.6,    1.1,    2.2,    2.8,    3.7,    4.2,    5.3,    6.3,    6.0,    6.1,    6.2,    6.2,    6.5,    7.4,  999.0,    2.0,  999.0,  999.0,    9.2,    6.2,    6.5,    6.0,    6.8,    6.3,    6.8,    7.6,    8.5,    9.4,    9.8,   10.4,   10.8,   10.9,   11.3,   11.1,   11.1,   10.9,   11.7,   10.9,   10.5,   10.8,   10.6,   10.8,   11.3,   11.8,   12.3,   12.5,   12.8,   13.4,   14.6,   14.7,   16.3,   16.6,   15.5,  999.0
2015/08/26 07:20,  999.0,    0.4,   -1.8,   -3.5,   -4.4,   -6.2,   -8.1,   -8.8,   -9.4,  -10.1,   -9.4,   -7.7,   -5.8,   -3.7,   -2.1,   -1.0,   -0.6,    0.5,   -0.4,   -0.4,    1.3,    2.4,    1.6,    1.4,    0.6,    0.4,   -0.2,    0.1,    0.2,    0.4,    1.3,    2.4,    3.0,    4.2,    3.9,    4.2,    3.8,    3.3,    2.9,    1.9,    3.7,  999.0,  999.0,    5.4,    5.3,    4.8,    6.3,    8.2,    8.1,    8.5,    8.6,    8.5,    8.9,    8.9,    9.2,    9.7,    9.8,   10.0,   10.3,   10.2,   10.0,   10.1,    9.9,   10.2,   10.2,   10.2,   10.0,   10.0,   10.2,   10.5,   10.4,   10.3,   10.7,   11.5,   11.4,   11.8,   12.5,   14.7,   13.8,  999.0
2015/08/26 07:30,  999.0,    1.7,   -0.1,   -2.9,   -3.5,   -5.7,   -7.0,   -8.4,   -9.6,  -10.2,   -9.5,   -8.5,   -5.8,   -4.1,   -1.5,   -0.2,   -0.3,    0.6,    0.4,    0.6,    0.8,    2.3,    3.3,    2.5,    1.7,    0.4,   -0.4,   -0.1,   -0.4,    1.4,    1.6,    2.4,    3.2,    3.8,    3.8,    4.3,    4.8,    3.9,    2.9,    4.3,    2.4,    1.1,    2.8,    3.3,  999.0,    5.6,    4.9,    5.9,    7.5,    9.0,    8.9,    8.9,    9.1,    9.5,    9.8,   10.3,   10.3,   10.3,   10.8,   11.3,   11.1,   10.6,   10.9,   10.2,   10.0,    9.6,    9.4,    9.0,    9.2,    9.5,    9.2,    9.1,    8.6,    9.3,    9.9,   10.7,   10.9,  999.0,  999.0,  999.0
2015/08/26 07:40,  999.0,    0.1,   -1.2,   -3.5,   -4.4,   -6.8,   -6.8,   -8.3,   -9.1,   -9.7,   -9.7,   -7.9,   -6.9,   -4.7,   -2.8,   -1.5,   -2.1,   -1.6,   -2.4,   -3.1,   -2.2,   -1.1,   -2.2,    1.4,   -0.7,   -0.9,    1.4,    0.8,    2.0,    4.3,    7.0,    7.8,   10.0,    8.3,    8.8,    9.0,    9.0,    7.8,   10.3,    9.6,    7.0,    8.1,    9.2,    7.4,    9.0,    9.3,    8.8,   10.5,   11.0,   11.0,   11.5,   13.2,   12.4,  999.0,  999.0,  999.0,   10.9,   10.8,   11.0,   11.6,   11.6,   10.8,    9.5,    9.3,  999.0,  999.0,  999.0,  999.0,  999.0,  999.0,  999.0,  999.0,  999.0,  999.0,  999.0,  999.0,  999.0,  999.0,  999.0,  999.0
2015/08/26 07:50,  999.0,  999.0,  999.0,   -3.2,   -4.4,   -4.4,   -4.8,   -4.6,   -4.6,   -5.3,   -5.0,   -4.1,   -3.1,   -2.1,   -0.8,   -1.2,   -0.9,   -2.8,   -2.7,   -4.1,   -7.3,   -5.1,  999.0,   -0.9,   -2.3,   -2.1,   -3.2,   -1.5,  999.0,  999.0,    6.6,  999.0,    8.7,    8.6,   12.7,   10.3,    9.2,   10.3,   10.5,    9.5,    8.8,    8.2,    8.0,    8.0,    9.7,   10.5,   11.6,   12.8,   13.1,   12.5,   12.3,   12.6,   11.7,   10.8,  999.0,  999.0,  999.0,  999.0,  999.0,  999.0,  999.0,  999.0,  999.0,  999.0,  999.0,  999.0,  999.0,  999.0,  999.0,  999.0,  999.0,  999.0,  999.0,  999.0,  999.0,  999.0,  999.0,  999.0,  999.0,  999.0
2015/08/26 08:00,  999.0,  999.0,  999.0,  999.0,  999.0,   -6.1,   -7.3,   -8.8,  -10.1,   -9.5,  -10.2,   -9.6,   -7.8,   -6.8,   -6.2,   -4.9,   -2.2,   -0.5,   -0.9,    0.3,    2.5,  999.0,    4.7,    4.2,    5.5,    4.8,    5.9,    6.3,    8.8,   10.7,    9.1,   13.1,   12.7,   12.4,   13.2,   14.1,   14.8,   15.1,   15.4,   13.5,   13.0,   12.9,   12.7,   11.6,   11.2,   10.1,   10.0,   10.1,   10.3,   11.5,   11.5,   10.7,   10.5,   10.7,    9.9,  999.0,  999.0,  999.0,  999.0,  999.0,   10.8,    9.6,  999.0,  999.0,  999.0,  999.0,  999.0,  999.0,  999.0,  999.0,  999.0,  999.0,  999.0,  999.0,  999.0,  999.0,  999.0,  999.0,  999.0,  999.0
2015/08/26 08:10,  999.0,   -1.4,   -1.9,   -2.5,   -4.5,   -6.6,   -8.6,  -10.1,  -10.5,  -10.5,  -10.4,   -9.2,   -1.0,    2.2,   -1.6,    0.5,    1.4,    1.1,    2.4,   12.5,    7.3,    5.0,  999.0,    2.1,    4.5,    5.3,  999.0,    2.5,  999.0,  999.0,   14.8,   12.8,   10.6,    9.8,    9.3,    8.2,  999.0,  999.0,  999.0,  999.0,   11.0,  999.0,    7.7,   11.0,   11.0,   11.2,   10.9,   10.4,   11.2,   11.7,   11.5,   10.7,   11.1,   12.0,  999.0,  999.0,  999.0,  999.0,  999.0,  999.0,  999.0,  999.0,  999.0,  999.0,  999.0,  999.0,  999.0,  999.0,  999.0,  999.0,  999.0,  999.0,  999.0,  999.0,  999.0,  999.0,  999.0,  999.0,  999.0,  999.0
2015/08/26 08:20,  999.0,  999.0,  999.0,  999.0,   -4.5,   -6.6,   -7.9,   -8.9,   -9.0,   -8.5,   -8.7,   -8.7,   -7.9,   -6.0,   -3.6,   -2.0,    0.7,   -2.3,   -2.8,   -2.4,   -1.6,   -3.3,   -2.6,   -4.2,   -4.0,   -4.6,   -1.9,   -4.0,   -2.6,   -4.3,  999.0,  999.0,  999.0,  999.0,    7.8,    9.3,    9.7,   11.1,  999.0,  999.0,    9.9,   10.9,   11.5,   13.0,   13.8,   13.6,   14.1,   14.0,   11.7,   11.1,   10.4,  999.0,  999.0,  999.0,  999.0,    6.6,    5.5,  999.0,  999.0,  999.0,  999.0,  999.0,  999.0,  999.0,  999.0,  999.0,  999.0,  999.0,  999.0,  999.0,  999.0,  999.0,  999.0,  999.0,  999.0,  999.0,  999.0,  999.0,  999.0,  999.0
2015/08/26 08:30,  999.0,  999.0,  999.0,   -2.8,   -4.2,   -6.1,   -7.7,   -8.4,   -8.3,   -8.1,   -7.9,   -7.9,   -7.7,   -6.6,   -5.1,   -2.5,    0.3,    2.4,    2.4,    2.5,    2.9,    2.9,    2.7,    2.5,  999.0,  999.0,    4.5,    6.4,    8.1,   10.0,   11.0,   12.7,   13.1,   14.1,   14.8,  999.0,  999.0,  999.0,   14.2,   14.6,   14.2,   14.5,   13.9,   14.7,  999.0,  999.0,   14.4,   13.3,   13.0,   12.9,   13.1,  999.0,  999.0,  999.0,  999.0,  999.0,  999.0,  999.0,  999.0,  999.0,  999.0,  999.0,  999.0,  999.0,  999.0,    5.3,  999.0,  999.0,  999.0,  999.0,  999.0,  999.0,  999.0,  999.0,  999.0,  999.0,  999.0,  999.0,  999.0,  999.0
2015/08/26 08:40,  999.0,  999.0,  999.0,   -3.0,   -5.4,   -7.3,   -8.4,   -8.4,   -8.0,   -8.0,   -7.8,   -7.9,   -7.7,   -6.8,   -5.1,   -3.0,   -0.5,    0.6,    2.6,    3.5,    5.0,    4.9,  999.0,  999.0,  999.0,    5.4,    5.6,    8.1,    9.4,   11.0,   12.5,  999.0,  999.0,   13.8,   15.0,   14.9,   15.3,   14.4,   14.4,   14.2,   13.0,   12.6,   12.5,  999.0,  999.0,  999.0,   11.2,   11.9,   12.7,   12.5,   12.3,   12.6,  999.0,  999.0,  999.0,    8.5,    7.0,    8.2,    6.5,  999.0,  999.0,  999.0,  999.0,  999.0,  999.0,    7.7,  999.0,  999.0,  999.0,  999.0,  999.0,  999.0,  999.0,  999.0,  999.0,  999.0,  999.0,  999.0,  999.0,  999.0
2015/08/26 08:50,  999.0,  999.0,  999.0,   -3.9,   -6.4,   -7.6,   -8.1,   -7.9,   -7.8,   -8.0,   -8.0,   -8.0,   -7.8,   -7.0,   -5.5,   -2.9,    0.2,    2.3,    3.9,    4.5,  999.0,  999.0,    3.9,  999.0,  999.0,    7.5,    9.8,   11.1,   11.9,   13.3,   14.4,   13.9,   14.0,   14.3,   14.6,   13.1,   12.9,   12.7,   13.4,   13.9,   14.3,   12.9,   13.6,   14.4,   15.7,   12.4,   12.4,   12.7,   12.9,   11.9,   12.3,   12.5,   12.4,   12.0,   11.8,   11.2,    8.2,    7.3,    7.5,    7.1,  999.0,  999.0,  999.0,    7.5,    5.4,  999.0,  999.0,  999.0,  999.0,  999.0,  999.0,  999.0,  999.0,  999.0,  999.0,  999.0,  999.0,  999.0,  999.0,  999.0
2015/08/26 09:00,  999.0,  999.0,  999.0,   -3.7,   -5.9,   -7.1,   -7.8,   -8.4,   -8.6,   -8.8,   -8.5,   -8.1,   -7.1,   -5.5,   -3.7,   -1.6,    1.7,    2.7,    3.7,    4.0,    8.1,    9.0,  999.0,  999.0,    9.1,    8.8,   10.0,   11.0,   11.9,   13.1,   14.4,   14.5,   14.0,   14.5,   15.2,   15.7,   15.0,   16.2,   16.3,   16.9,   16.0,   15.3,   14.9,   13.6,   12.0,   12.2,   10.8,   10.0,   10.4,   10.6,   10.5,   11.3,   11.2,   10.7,    9.8,    9.3,    9.2,    7.8,  999.0,    6.2,    5.4,    4.7,    4.8,  999.0,  999.0,  999.0,  999.0,  999.0,  999.0,  999.0,  999.0,  999.0,  999.0,  999.0,  999.0,  999.0,  999.0,  999.0,  999.0,  999.0
2015/08/26 09:10,  999.0,  999.0,  999.0,   -4.1,   -5.5,   -7.3,   -9.5,   -8.2,   -6.9,   -6.8,   -6.4,   -6.4,   -5.0,   -4.0,   -3.1,   -1.6,    0.7,    1.2,    2.5,    4.9,    8.2,  999.0,    6.8,    6.0,    8.5,   11.8,   10.7,   13.3,   10.7,   11.5,    9.9,   13.0,   15.4,   16.0,   15.9,   15.2,   15.1,   15.2,   13.5,   14.3,   13.6,   13.4,   13.4,   12.8,   12.5,   12.5,   11.2,   10.7,    9.4,    9.8,    9.2,   10.0,   10.5,   11.0,    9.7,    9.3,    8.2,    4.3,    3.8,    2.9,    3.3,    3.5,    4.9,  999.0,  999.0,  999.0,  999.0,  999.0,  999.0,  999.0,  999.0,  999.0,  999.0,  999.0,  999.0,  999.0,  999.0,  999.0,  999.0,  999.0
2015/08/26 09:20,  999.0,  999.0,   -4.8,  999.0,   -4.7,   -6.6,   -7.9,   -8.9,   -8.4,   -7.4,   -7.2,   -7.0,   -5.5,   -3.7,   -3.3,   -3.5,   -2.4,   -0.8,   -0.3,   -1.0,   -0.3,    1.5,    1.6,    2.6,    3.2,    6.8,    9.1,    7.9,    8.9,   10.0,    8.6,    9.3,    8.7,    7.7,    7.2,    6.4,    5.2,    5.3,    4.5,    4.3,    4.1,    4.4,    1.9,    5.2,    2.7,    3.7,    3.5,    4.7,    6.1,    6.9,    6.0,    5.8,    6.5,    8.7,    8.4,    7.8,    7.9,    7.6,    5.9,    5.2,    3.8,    2.8,    4.2,    7.3,  999.0,  999.0,  999.0,  999.0,  999.0,  999.0,  999.0,  999.0,  999.0,  999.0,  999.0,  999.0,  999.0,  999.0,  999.0,  999.0
2015/08/26 09:30,  999.0,  999.0,   -3.8,   -3.7,   -5.6,   -6.5,   -7.7,   -7.6,   -7.3,   -8.0,   -8.0,   -5.6,   -1.8,  999.0,   -2.0,   -4.0,   -3.0,  999.0,    0.4,   -0.4,   -0.2,    0.8,    1.1,    2.5,    0.6,    3.4,    2.8,    6.6,    5.8,    4.0,    5.1,    9.1,    9.7,   10.3,   10.4,    8.9,    7.7,    7.0,    5.9,    5.5,    6.0,    5.7,    6.5,    5.8,    4.8,    4.1,    3.5,    4.9,    5.6,    4.5,    2.9,    2.9,    3.1,    2.8,    4.0,    3.4,    4.2,    2.0,    3.8,    3.7,    3.3,    4.4,    6.0,    7.9,  999.0,  999.0,  999.0,  999.0,  999.0,  999.0,  999.0,  999.0,  999.0,  999.0,  999.0,  999.0,  999.0,  999.0,  999.0,  999.0
2015/08/26 09:40,  999.0,  999.0,  999.0,   -4.3,   -5.6,   -7.3,   -8.1,   -8.0,   -8.8,   -8.9,   -7.8,   -7.7,   -6.6,   -5.8,   -4.6,   -3.5,   -2.6,   -0.8,   -0.0,   -0.5,   -0.6,    2.8,    4.1,    4.3,    5.6,    5.9,    6.3,    6.5,    6.9,    7.2,    7.4,    8.1,    8.1,    8.1,    8.0,    7.9,    7.9,    7.4,    6.8,    6.4,    5.5,    4.4,    3.9,    3.6,    3.3,    1.9,  999.0,  999.0,    0.4,    2.2,    6.1,    2.1,    3.6,    1.9,    2.8,    2.6,    1.6,    2.1,    1.6,    1.7,    3.0,    2.8,    4.3,  999.0,  999.0,  999.0,  999.0,  999.0,  999.0,  999.0,  999.0,  999.0,  999.0,  999.0,  999.0,  999.0,  999.0,  999.0,  999.0,  999.0
2015/08/26 09:50,  999.0,  999.0,   -2.6,   -5.0,   -6.7,   -8.3,   -8.8,   -9.3,   -9.3,   -8.8,   -8.4,   -7.6,   -6.7,   -4.4,   -2.9,   -2.2,   -2.2,   -1.2,    0.6,    1.3,    1.4,    2.1,    3.0,    4.4,    4.0,  999.0,    6.0,    5.6,    7.4,    8.5,    8.2,  999.0,  999.0,  999.0,  999.0,  999.0,  999.0,  999.0,  999.0,  999.0,    6.3,    6.9,    7.1,    6.0,    5.3,    5.5,    6.2,    5.0,    4.1,    3.6,  999.0,  999.0,  999.0,    3.8,    4.2,    2.8,    2.5,  999.0,  999.0,  999.0,    2.7,    4.6,    6.2,    9.7,    9.4,  999.0,  999.0,  999.0,  999.0,  999.0,  999.0,  999.0,  999.0,  999.0,  999.0,  999.0,  999.0,  999.0,  999.0,  999.0
2015/08/26 10:00,  999.0,  999.0,   -2.1,   -3.8,   -6.1,   -7.4,   -7.7,   -8.5,   -8.7,   -8.5,   -8.2,   -7.5,   -6.1,   -4.1,   -3.1,   -2.0,   -3.5,   -1.9,   -5.5,   -4.7,   -4.5,   -4.5,    3.6,    4.0,    4.8,    5.0,    5.6,    5.9,    9.8,    9.9,    9.5,   11.1,   10.4,    9.7,    7.1,    6.1,    4.0,    3.8,    5.6,    4.6,    7.4,  999.0,    7.5,    7.5,    4.6,    7.1,    3.5,    5.6,    3.8,    8.4,    7.0,    5.6,    4.8,    6.9,    5.4,    4.8,    5.0,    5.7,    5.3,    5.4,    4.9,    5.8,    6.8,    9.3,   11.9,  999.0,  999.0,  999.0,  999.0,  999.0,  999.0,  999.0,  999.0,  999.0,  999.0,  999.0,  999.0,  999.0,  999.0,  999.0
2015/08/26 10:10,  999.0,  999.0,   -1.8,   -4.9,   -5.8,   -6.5,   -7.6,   -7.5,   -7.9,   -7.8,   -7.7,   -7.4,   -5.9,   -3.7,   -2.8,   -2.0,   -2.1,   -1.9,   -0.5,    1.4,    2.2,    1.8,    1.4,    2.0,  999.0,  999.0,    7.0,    9.9,   11.7,   11.9,   12.8,   13.1,   14.2,   13.9,   13.7,   14.4,   15.1,   14.7,   14.6,   13.7,   12.4,   11.8,   10.1,    9.1,    7.5,    6.4,    5.4,    4.2,    5.0,    4.1,    4.1,    3.8,    3.6,    2.3,    4.2,    5.4,    6.3,  999.0,  999.0,  999.0,    4.1,    6.2,    9.5,  999.0,  999.0,  999.0,  999.0,  999.0,  999.0,  999.0,  999.0,  999.0,  999.0,  999.0,  999.0,  999.0,  999.0,  999.0,  999.0,  999.0
2015/08/26 10:20,  999.0,  999.0,   -2.0,   -1.2,   -1.1,   -0.8,   -0.8,   -1.1,   -1.0,   -2.0,   -3.0,   -5.4,   -3.5,   -2.5,   -2.4,   -1.5,   -1.1,   -2.0,   -0.0,    1.7,    3.4,    2.6,    3.3,    3.2,  999.0,  999.0,  999.0,   10.5,   11.3,   12.7,   12.7,   11.4,   12.2,   12.6,   12.4,   11.8,   11.4,   13.1,   13.5,   13.8,   13.6,   12.6,   12.4,   12.1,    9.9,    8.3,    7.0,    7.1,    6.8,    5.3,    4.6,    4.7,    4.4,    3.8,    3.3,    2.6,    1.2,    0.8,    0.3,    1.9,    4.6,  999.0,  999.0,  999.0,  999.0,  999.0,  999.0,  999.0,  999.0,  999.0,  999.0,  999.0,  999.0,  999.0,  999.0,  999.0,  999.0,  999.0,  999.0,  999.0
2015/08/26 10:30,  999.0,   -1.1,   -0.6,   -1.0,   -0.3,   -0.1,   -0.4,   -0.2,   -0.2,   -0.5,   -0.6,   -2.6,   -1.2,   -1.3,   -1.1,   -1.6,    0.4,   -0.5,   -0.9,    0.5,    2.6,    2.7,    4.3,  999.0,  999.0,  999.0,  999.0,   10.7,   10.8,   11.7,   12.8,   12.6,   12.8,   13.3,   14.3,   14.4,   13.6,   12.7,   13.2,   12.8,   12.7,   10.6,    9.7,    9.3,    8.2,    7.5,    5.7,    4.2,    3.6,    3.3,    2.1,    1.4,    1.9,    1.7,    0.3,    0.1,   -0.3,    0.1,    1.6,    3.7,    8.9,  999.0,  999.0,  999.0,  999.0,  999.0,  999.0,  999.0,  999.0,  999.0,  999.0,  999.0,  999.0,  999.0,  999.0,  999.0,  999.0,  999.0,  999.0,  999.0
2015/08/26 10:40,  999.0,   -0.4,   -1.6,   -2.1,   -2.4,   -5.3,   -8.4,   -0.5,  999.0,  999.0,   -7.3,   -6.6,   -5.6,   -5.2,   -4.8,   -4.3,   -4.0,   -3.8,   -3.2,   -2.1,    0.4,    1.2,    2.7,  999.0,  999.0,  999.0,  999.0,    9.2,    9.5,  999.0,  999.0,   10.3,   11.6,   12.7,   14.2,   16.6,   14.5,   14.2,   14.3,   13.8,   13.0,   12.1,   11.4,    9.7,   10.1,    9.4,    7.0,    6.2,    6.1,    8.7,  999.0,  999.0,    4.5,    3.1,    2.3,    1.0,    0.5,    2.8,    4.0,  999.0,  999.0,  999.0,  999.0,  999.0,  999.0,  999.0,  999.0,  999.0,  999.0,  999.0,  999.0,  999.0,  999.0,  999.0,  999.0,  999.0,  999.0,  999.0,  999.0,  999.0
2015/08/26 10:50,  999.0,   -1.4,   -2.8,   -4.5,   -6.6,   -7.9,   -7.1,   -7.5,   -7.6,   -7.2,   -6.4,   -6.4,   -6.3,   -6.2,   -5.8,   -5.3,   -4.5,   -4.0,   -3.8,   -2.2,   -0.0,    0.5,    2.1,  999.0,  999.0,  999.0,  999.0,    8.2,    8.8,  999.0,    9.3,  999.0,  999.0,  999.0,   10.8,  999.0,   10.9,   12.7,   12.8,   13.0,   12.3,   12.0,   12.4,   11.6,    9.0,    7.8,  999.0,    3.5,    3.4,  999.0,  999.0,    2.1,  999.0,  999.0,   -1.5,    0.6,    2.1,  999.0,  999.0,  999.0,  999.0,  999.0,  999.0,  999.0,  999.0,  999.0,  999.0,  999.0,  999.0,  999.0,  999.0,  999.0,  999.0,  999.0,  999.0,  999.0,  999.0,  999.0,  999.0,  999.0
2015/08/26 11:00,  999.0,  999.0,   -4.1,   -5.8,   -6.5,   -6.7,   -7.1,   -7.3,   -7.4,   -7.3,   -6.9,   -6.8,   -6.9,   -6.6,   -6.4,   -5.7,   -5.2,   -4.6,   -3.7,   -2.1,   -0.5,    0.3,    2.2,  999.0,  999.0,  999.0,  999.0,  999.0,  999.0,    9.2,   11.0,  999.0,  999.0,  999.0,   10.4,   10.2,   10.4,   11.4,   11.5,   11.8,   11.8,   11.4,   10.5,   10.0,    8.0,    7.8,    7.2,  999.0,    2.6,    2.7,    1.8,    1.4,  999.0,   -2.8,   -4.5,   -2.0,  999.0,  999.0,  999.0,  999.0,  999.0,  999.0,  999.0,  999.0,  999.0,  999.0,  999.0,  999.0,  999.0,  999.0,  999.0,  999.0,  999.0,  999.0,  999.0,  999.0,  999.0,  999.0,  999.0,  999.0
2015/08/26 11:10,  999.0,   -0.4,   -4.1,   -5.1,   -5.2,   -5.4,   -6.6,   -7.0,   -6.9,   -6.5,   -6.2,   -6.3,   -6.7,   -7.1,   -7.1,   -6.3,   -5.5,   -4.2,   -3.5,   -2.3,   -0.3,    1.8,    3.4,  999.0,  999.0,  999.0,    8.3,  999.0,  999.0,  999.0,    8.8,   11.3,   10.2,   10.9,   10.8,   10.6,   10.6,   10.3,   10.1,    9.9,    9.8,    9.0,    8.6,    8.9,    7.8,    7.2,    4.2,    3.0,    3.7,  999.0,    0.7,  999.0,  999.0,  999.0,  999.0,  999.0,  999.0,  999.0,  999.0,  999.0,  999.0,  999.0,  999.0,  999.0,  999.0,  999.0,  999.0,  999.0,  999.0,  999.0,  999.0,  999.0,  999.0,  999.0,  999.0,  999.0,  999.0,  999.0,  999.0,  999.0
2015/08/26 11:20,  999.0,  999.0,   -1.3,   -3.2,   -2.6,   -4.6,   -4.4,   -5.5,   -5.9,   -7.0,   -7.0,   -7.0,   -6.8,   -6.4,   -4.9,   -4.7,   -3.6,   -3.4,   -2.5,   -1.7,   -0.4,    0.7,    2.5,    4.2,    5.7,  999.0,  999.0,  999.0,  999.0,    8.2,    9.2,    9.5,    9.7,    9.7,   10.1,   10.5,    9.8,    8.9,    7.5,    8.0,    8.1,    9.0,    9.4,    9.3,  999.0,    8.0,    6.1,    6.6,    4.7,    5.4,  999.0,  999.0,  999.0,  999.0,  999.0,  999.0,  999.0,  999.0,  999.0,  999.0,  999.0,  999.0,  999.0,  999.0,  999.0,  999.0,  999.0,  999.0,  999.0,  999.0,  999.0,  999.0,  999.0,  999.0,  999.0,  999.0,  999.0,  999.0,  999.0,  999.0
2015/08/26 11:30,  999.0,   -0.3,   -2.2,   -4.0,   -5.6,   -6.7,   -7.3,   -8.0,   -8.0,   -8.3,   -8.4,   -8.1,   -7.7,   -7.5,   -6.7,   -5.6,   -4.6,   -3.7,   -3.1,   -2.0,   -0.0,    2.0,    4.1,  999.0,    7.0,    7.1,    7.3,    8.8,    9.5,    9.6,    9.2,   10.3,    9.7,    9.7,   10.0,   10.1,    9.9,    8.8,    8.2,    8.4,    8.4,    7.2,    7.9,    8.3,    8.2,  999.0,  999.0,  999.0,    5.2,  999.0,  999.0,  999.0,  999.0,  999.0,  999.0,  999.0,  999.0,  999.0,  999.0,  999.0,  999.0,  999.0,  999.0,  999.0,  999.0,  999.0,  999.0,  999.0,  999.0,  999.0,  999.0,  999.0,  999.0,  999.0,  999.0,  999.0,  999.0,  999.0,  999.0,  999.0
2015/08/26 11:40,  999.0,   -0.8,   -1.9,   -1.7,   -2.6,   -4.5,   -6.5,   -7.3,   -7.3,   -7.2,   -7.3,   -7.2,   -6.6,   -6.1,   -5.9,   -5.0,   -3.8,   -3.1,   -1.8,   -0.3,    0.6,  999.0,  999.0,    6.4,    6.5,    6.8,    8.0,    9.3,    9.5,   10.9,    9.1,    9.6,   10.0,    9.4,    8.6,    9.5,    8.7,    8.7,    8.6,    8.9,    9.0,    9.0,    7.7,    7.6,    7.0,    6.2,  999.0,  999.0,  999.0,  999.0,  999.0,  999.0,  999.0,  999.0,  999.0,  999.0,  999.0,  999.0,  999.0,  999.0,  999.0,  999.0,  999.0,  999.0,  999.0,  999.0,  999.0,  999.0,  999.0,  999.0,  999.0,  999.0,  999.0,  999.0,  999.0,  999.0,  999.0,  999.0,  999.0,  999.0
2015/08/26 11:50,  999.0,   -0.9,   -1.8,   -1.9,   -3.2,   -5.3,   -7.0,   -7.2,   -7.3,   -7.1,   -6.9,   -6.9,   -7.2,   -7.7,   -6.9,   -6.1,   -5.5,   -3.1,   -2.0,  999.0,  999.0,  999.0,  999.0,  999.0,    6.9,  999.0,    8.5,    8.9,    9.8,   10.0,   10.8,  999.0,   11.5,   11.6,    8.4,    8.0,    7.2,    6.8,    7.1,    7.0,    7.9,    7.8,    7.5,    7.4,    8.6,    8.9,    8.9,  999.0,  999.0,  999.0,  999.0,  999.0,  999.0,  999.0,  999.0,  999.0,  999.0,  999.0,  999.0,  999.0,  999.0,  999.0,  999.0,  999.0,  999.0,  999.0,  999.0,  999.0,  999.0,  999.0,  999.0,  999.0,  999.0,  999.0,  999.0,  999.0,  999.0,  999.0,  999.0,  999.0
2015/08/26 12:00,  999.0,   -0.7,   -1.9,   -3.1,   -3.5,   -4.3,   -6.3,   -6.5,   -7.2,   -7.4,   -7.6,   -7.8,   -7.7,   -7.1,   -6.5,   -6.6,   -5.4,  999.0,   -1.9,   -0.9,  999.0,    1.2,    3.7,    5.8,    6.3,    7.6,    9.0,   10.5,   11.4,   11.3,   12.4,  999.0,  999.0,   11.1,    9.5,    7.5,    8.0,    8.3,    8.8,   10.8,    9.2,    7.6,    7.1,    8.3,    9.3,    9.1,    9.6,   10.9,    7.1,  999.0,  999.0,  999.0,  999.0,  999.0,  999.0,  999.0,  999.0,  999.0,  999.0,  999.0,  999.0,  999.0,  999.0,  999.0,  999.0,  999.0,  999.0,  999.0,  999.0,  999.0,  999.0,  999.0,  999.0,  999.0,  999.0,  999.0,  999.0,  999.0,  999.0,  999.0
2015/08/26 12:10,  999.0,   -0.1,   -0.6,   -0.7,   -0.9,   -1.3,   -2.0,   -3.2,   -5.4,   -6.8,   -7.2,   -7.0,   -7.4,   -8.1,   -7.2,   -6.5,   -7.8,   -7.6,  999.0,  999.0,   -0.3,    1.5,  999.0,    5.5,    7.1,    8.3,    9.5,   10.6,   11.4,   13.0,   12.9,   12.9,   12.3,   10.8,    9.9,    8.8,    8.2,    7.7,    7.5,  999.0,    6.0,    5.7,    6.4,  999.0,  999.0,  999.0,  999.0,    8.0,    8.4,  999.0,  999.0,  999.0,  999.0,  999.0,  999.0,  999.0,  999.0,  999.0,  999.0,  999.0,  999.0,  999.0,  999.0,  999.0,  999.0,  999.0,  999.0,  999.0,  999.0,  999.0,  999.0,  999.0,  999.0,  999.0,  999.0,  999.0,  999.0,  999.0,  999.0,  999.0
2015/08/26 12:20,  999.0,    0.1,   -0.2,   -0.3,   -0.6,   -0.9,   -1.9,   -1.6,   -3.4,   -3.5,   -5.3,   -6.5,   -7.5,   -7.8,   -6.7,   -5.3,   -6.4,   -7.5,  999.0,  999.0,    0.8,    1.8,    3.9,    5.7,    7.2,    8.6,    9.9,   11.1,   10.6,   11.3,   12.5,   11.6,   11.2,   11.0,   11.4,   10.0,    9.5,    9.1,    7.4,    6.9,    5.9,    5.1,  999.0,  999.0,  999.0,  999.0,  999.0,  999.0,  999.0,  999.0,  999.0,  999.0,  999.0,  999.0,  999.0,  999.0,  999.0,  999.0,  999.0,  999.0,  999.0,  999.0,  999.0,  999.0,  999.0,  999.0,  999.0,  999.0,  999.0,  999.0,  999.0,  999.0,  999.0,  999.0,  999.0,  999.0,  999.0,  999.0,  999.0,  999.0
2015/08/26 12:30,  999.0,    0.8,   -2.7,   -1.7,   -1.6,   -2.0,   -3.2,   -4.6,   -4.7,   -5.2,   -5.3,   -6.1,   -7.1,   -7.5,   -7.0,   -5.4,   -5.7,   -7.9,   -7.9,  999.0,  999.0,   -1.2,   -0.0,  999.0,    5.5,    6.2,    7.7,    9.3,    9.5,   10.1,   12.1,   11.9,   10.8,   10.5,   10.0,   10.1,   10.3,    9.7,   10.1,    7.4,    7.5,  999.0,  999.0,  999.0,  999.0,  999.0,  999.0,  999.0,  999.0,  999.0,  999.0,  999.0,  999.0,  999.0,  999.0,  999.0,  999.0,  999.0,  999.0,  999.0,  999.0,  999.0,  999.0,  999.0,  999.0,  999.0,  999.0,  999.0,  999.0,  999.0,  999.0,  999.0,  999.0,  999.0,  999.0,  999.0,  999.0,  999.0,  999.0,  999.0
2015/08/26 12:40,  999.0,  999.0,  999.0,   -3.5,   -3.2,   -2.7,   -4.0,   -4.9,   -5.2,   -5.0,   -4.6,   -5.5,   -5.5,   -5.8,   -5.6,   -4.9,   -4.2,   -7.6,   -8.0,   -8.0,   -7.4,   -8.1,  999.0,  999.0,  999.0,  999.0,  999.0,  999.0,    8.8,    9.0,   10.5,   11.7,   12.0,  999.0,  999.0,  999.0,    8.3,    8.2,  999.0,    6.1,    6.5,  999.0,  999.0,  999.0,  999.0,  999.0,  999.0,  999.0,  999.0,  999.0,  999.0,  999.0,  999.0,  999.0,  999.0,  999.0,  999.0,  999.0,  999.0,  999.0,  999.0,  999.0,  999.0,  999.0,  999.0,  999.0,  999.0,  999.0,  999.0,  999.0,  999.0,  999.0,  999.0,  999.0,  999.0,  999.0,  999.0,  999.0,  999.0,  999.0
2015/08/26 12:50,  999.0,   -0.8,   -1.6,   -2.4,   -2.9,   -4.2,   -5.9,   -5.9,   -5.1,   -4.4,   -4.5,   -5.6,   -4.8,   -4.4,   -4.7,   -4.2,   -4.7,   -6.2,   -6.7,   -7.0,   -7.0,   -7.2,   -7.3,   -5.6,   -4.1,  999.0,  999.0,    0.1,    5.2,    9.0,    9.3,  999.0,   10.5,   10.7,  999.0,  999.0,  999.0,    7.3,    7.2,  999.0,    5.4,  999.0,  999.0,  999.0,  999.0,  999.0,  999.0,  999.0,  999.0,  999.0,  999.0,  999.0,  999.0,  999.0,  999.0,  999.0,  999.0,  999.0,  999.0,  999.0,  999.0,  999.0,  999.0,  999.0,  999.0,  999.0,  999.0,  999.0,  999.0,  999.0,  999.0,  999.0,  999.0,  999.0,  999.0,  999.0,  999.0,  999.0,  999.0,  999.0
2015/08/26 13:00,  999.0,  999.0,   -5.6,   -2.2,   -3.9,   -4.8,   -5.5,   -5.8,   -5.8,   -5.2,   -4.8,   -5.6,   -5.4,   -5.3,   -5.4,   -4.4,   -3.5,   -5.4,   -6.5,   -7.5,   -6.9,   -7.5,   -6.6,   -5.5,   -5.1,   -4.9,   -3.8,   -2.9,   -2.2,   -1.7,   -1.8,   -0.6,  999.0,  999.0,    0.4,    0.2,    0.3,   -0.3,  999.0,   -0.3,    0.0,   -0.3,  999.0,   -0.1,  999.0,    0.1,   -0.0,  999.0,    0.1,  999.0,  999.0,  999.0,  999.0,   -0.3,    0.0,  999.0,  999.0,  999.0,    0.0,  999.0,  999.0,  999.0,  999.0,  999.0,  999.0,  999.0,  999.0,  999.0,  999.0,  999.0,  999.0,  999.0,  999.0,  999.0,  999.0,  999.0,  999.0,  999.0,  999.0,  999.0
2015/08/26 13:10,  999.0,  999.0,   -0.5,   -1.5,   -2.1,   -2.4,   -3.7,   -5.1,   -6.0,   -6.1,   -6.1,   -6.1,   -6.2,   -6.2,   -5.9,   -4.8,   -3.7,  999.0,   -7.8,   -7.4,   -7.0,   -7.6,   -6.7,   -4.8,   -4.9,   -5.5,   -4.8,   -3.7,   -2.7,  999.0,   -1.8,   -0.5,    0.2,  999.0,   -0.1,   -0.1,  999.0,  999.0,  999.0,  999.0,    0.1,   -0.3,  999.0,    0.1,  999.0,   -0.1,   -0.1,   -0.0,   -0.0,  999.0,  999.0,  999.0,   -0.1,    0.1,    0.4,  999.0,    0.3,  999.0,  999.0,  999.0,  999.0,  999.0,  999.0,  999.0,  999.0,  999.0,  999.0,  999.0,  999.0,  999.0,  999.0,  999.0,  999.0,  999.0,  999.0,  999.0,  999.0,  999.0,  999.0,  999.0
2015/08/26 13:20,  999.0,  999.0,   -0.5,   -1.4,   -1.8,   -2.6,   -3.9,   -4.3,   -4.9,   -4.6,   -5.1,   -5.3,   -5.7,   -5.7,   -5.2,   -3.7,   -2.9,  999.0,   -7.1,   -6.7,   -6.3,   -6.7,   -6.5,   -5.0,   -4.5,   -4.2,   -3.8,   -3.2,   -2.2,   -1.5,  999.0,  999.0,    0.7,  999.0,    0.3,  999.0,  999.0,  999.0,  999.0,   -0.3,  999.0,   -0.3,   -0.3,   -0.1,  999.0,   -0.0,  999.0,    0.4,   -0.3,  999.0,  999.0,  999.0,   -0.2,    0.2,    0.4,  999.0,    0.3,    0.3,  999.0,  999.0,  999.0,  999.0,  999.0,  999.0,  999.0,  999.0,  999.0,  999.0,  999.0,  999.0,  999.0,  999.0,  999.0,  999.0,  999.0,  999.0,  999.0,  999.0,  999.0,  999.0
2015/08/26 13:30,  999.0,  999.0,   -0.8,   -1.6,   -2.9,   -4.1,   -4.8,   -5.0,   -5.1,   -5.1,   -4.9,   -4.8,   -4.9,   -4.5,   -4.0,   -2.5,  999.0,   -4.8,   -6.4,   -5.4,   -4.9,   -5.9,   -6.1,   -5.7,   -6.0,   -3.5,    0.1,  999.0,   -0.9,    5.5,    7.1,    1.1,  999.0,  999.0,  999.0,  999.0,    2.8,  999.0,  999.0,  999.0,   -0.2,  999.0,  999.0,  999.0,  999.0,   -0.1,  999.0,    0.2,   -0.1,  999.0,  999.0,  999.0,    0.0,  999.0,  999.0,  999.0,  999.0,  999.0,  999.0,  999.0,  999.0,  999.0,  999.0,  999.0,  999.0,  999.0,  999.0,  999.0,  999.0,  999.0,  999.0,  999.0,  999.0,  999.0,  999.0,  999.0,  999.0,  999.0,  999.0,  999.0
2015/08/26 13:40,  999.0,  999.0,   -0.7,   -2.0,   -3.3,   -4.3,   -4.5,   -4.6,   -5.2,   -4.8,   -4.0,   -3.5,   -3.2,   -3.4,   -3.8,   -3.2,   -3.5,   -3.0,   -1.0,    0.5,    1.7,    3.2,    4.4,    5.6,    5.9,    6.6,    8.1,    9.8,   10.8,   11.9,  999.0,  999.0,  999.0,  999.0,  999.0,  999.0,    8.0,    8.1,  999.0,  999.0,  999.0,  999.0,  999.0,  999.0,  999.0,  999.0,  999.0,  999.0,  999.0,  999.0,  999.0,  999.0,  999.0,  999.0,  999.0,  999.0,  999.0,  999.0,  999.0,  999.0,  999.0,  999.0,  999.0,  999.0,  999.0,  999.0,  999.0,  999.0,  999.0,  999.0,  999.0,  999.0,  999.0,  999.0,  999.0,  999.0,  999.0,  999.0,  999.0,  999.0
2015/08/26 13:50,  999.0,  999.0,   -2.2,   -2.8,   -3.4,   -4.0,   -4.3,   -4.0,   -3.7,   -3.7,   -3.5,   -3.4,   -2.9,   -2.5,   -2.8,   -3.8,   -3.9,   -2.0,   -1.4,    0.5,    1.9,    3.5,    4.4,    4.4,    4.5,    5.6,    7.5,    9.1,   11.3,   12.4,   11.7,   10.0,    8.6,  999.0,  999.0,  999.0,  999.0,    7.7,  999.0,  999.0,    8.2,    9.7,   11.1,   11.4,  999.0,  999.0,  999.0,    9.9,  999.0,  999.0,  999.0,  999.0,  999.0,  999.0,  999.0,  999.0,  999.0,  999.0,  999.0,  999.0,  999.0,  999.0,  999.0,  999.0,  999.0,  999.0,  999.0,  999.0,  999.0,  999.0,  999.0,  999.0,  999.0,  999.0,  999.0,  999.0,  999.0,  999.0,  999.0,  999.0
2015/08/26 14:00,  999.0,   -0.5,   -1.8,   -2.5,   -3.3,   -4.5,   -4.4,   -3.8,   -3.4,   -3.5,   -3.7,   -3.4,   -3.1,   -3.5,   -3.7,   -3.8,   -4.0,   -3.5,   -1.7,   -0.1,    1.4,    3.6,    4.9,    4.8,    5.1,    6.6,    7.8,    9.6,   10.8,   11.5,   10.8,   10.8,  999.0,  999.0,  999.0,  999.0,  999.0,    8.8,    9.3,    7.8,    9.2,   11.2,    9.6,   10.6,    9.6,  999.0,  999.0,  999.0,  999.0,  999.0,    8.2,    8.1,  999.0,  999.0,  999.0,  999.0,  999.0,  999.0,  999.0,  999.0,  999.0,  999.0,  999.0,  999.0,  999.0,  999.0,  999.0,  999.0,  999.0,  999.0,  999.0,  999.0,  999.0,  999.0,  999.0,  999.0,  999.0,  999.0,  999.0,  999.0
2015/08/26 14:10,  999.0,   -1.2,   -1.7,   -2.5,   -3.2,   -4.0,   -4.5,   -4.6,   -4.1,   -4.3,   -4.5,   -4.8,   -4.6,   -4.5,   -3.9,   -4.2,   -4.8,   -3.5,   -1.6,   -0.3,    1.5,    4.0,    4.3,    4.6,    5.1,    5.9,    7.4,   10.0,   11.1,   11.7,   10.8,  999.0,  999.0,  999.0,  999.0,  999.0,  999.0,    9.1,    9.7,    9.9,   10.5,  999.0,  999.0,  999.0,  999.0,  999.0,  999.0,  999.0,  999.0,  999.0,  999.0,  999.0,  999.0,  999.0,  999.0,  999.0,  999.0,  999.0,  999.0,  999.0,  999.0,  999.0,  999.0,  999.0,  999.0,  999.0,  999.0,  999.0,  999.0,  999.0,  999.0,  999.0,  999.0,  999.0,  999.0,  999.0,  999.0,  999.0,  999.0,  999.0
2015/08/26 14:20,  999.0,   -1.3,   -2.8,   -3.2,   -3.5,   -3.6,   -3.9,   -3.5,   -3.4,   -4.1,   -4.9,   -5.5,   -5.9,   -5.2,   -4.4,   -4.5,   -4.6,   -2.5,   -0.7,    0.5,    1.8,    4.0,    4.4,    4.5,    5.4,    5.8,    7.4,    9.5,   11.2,   11.0,  999.0,  999.0,    9.2,  999.0,  999.0,  999.0,  999.0,  999.0,  999.0,  999.0,  999.0,  999.0,  999.0,  999.0,  999.0,  999.0,  999.0,    9.1,    9.4,   10.2,  999.0,  999.0,  999.0,  999.0,  999.0,  999.0,  999.0,  999.0,  999.0,  999.0,  999.0,  999.0,  999.0,  999.0,  999.0,  999.0,  999.0,  999.0,  999.0,  999.0,  999.0,  999.0,  999.0,  999.0,  999.0,  999.0,  999.0,  999.0,  999.0,  999.0
2015/08/26 14:30,  999.0,   -0.8,   -2.5,   -2.7,   -3.3,   -4.4,   -4.6,   -4.8,   -4.4,   -4.7,   -5.2,   -5.7,   -5.7,   -5.0,   -4.5,   -5.0,   -4.3,   -2.2,   -1.0,    0.6,    2.5,    4.4,    4.6,    5.5,    5.5,    6.5,    9.2,   10.0,   11.3,   10.7,  999.0,  999.0,  999.0,  999.0,  999.0,  999.0,  999.0,  999.0,  999.0,  999.0,  999.0,  999.0,  999.0,  999.0,    9.1,    9.6,   10.3,  999.0,    9.8,   10.0,   11.2,  999.0,  999.0,  999.0,  999.0,  999.0,  999.0,  999.0,  999.0,  999.0,  999.0,  999.0,  999.0,  999.0,  999.0,  999.0,  999.0,  999.0,  999.0,  999.0,  999.0,  999.0,  999.0,  999.0,  999.0,  999.0,  999.0,  999.0,  999.0,  999.0
2015/08/26 14:40,  999.0,   -0.4,   -1.6,   -3.2,   -4.5,   -5.4,   -6.4,   -6.5,   -6.1,   -6.6,   -6.3,   -6.1,   -5.5,   -5.3,   -5.3,   -5.3,   -3.6,   -1.4,   -0.4,    1.9,    4.2,    5.0,    4.8,    5.4,    6.5,    7.7,    9.0,   10.6,   11.2,   10.2,   10.4,  999.0,  999.0,  999.0,    9.5,  999.0,  999.0,  999.0,  999.0,  999.0,  999.0,  999.0,  999.0,  999.0,  999.0,  999.0,  999.0,  999.0,    7.6,    8.4,    7.5,  999.0,  999.0,  999.0,  999.0,  999.0,  999.0,  999.0,  999.0,  999.0,  999.0,  999.0,  999.0,  999.0,  999.0,  999.0,  999.0,  999.0,  999.0,  999.0,  999.0,  999.0,  999.0,  999.0,  999.0,  999.0,  999.0,  999.0,  999.0,  999.0
2015/08/26 14:50,  999.0,  999.0,   -1.5,   -1.7,   -3.9,   -4.5,   -6.0,   -5.6,   -5.4,   -5.5,   -5.5,   -5.5,   -5.4,   -5.4,   -5.3,   -4.9,   -3.9,   -1.8,   -0.5,    0.5,    2.5,    4.1,    5.0,    5.6,    6.5,    8.2,    9.4,   11.0,  999.0,  999.0,  999.0,  999.0,    8.9,  999.0,  999.0,  999.0,  999.0,  999.0,  999.0,  999.0,  999.0,  999.0,    8.9,   10.1,  999.0,  999.0,  999.0,  999.0,  999.0,    8.9,  999.0,  999.0,    8.2,  999.0,  999.0,  999.0,  999.0,  999.0,  999.0,  999.0,  999.0,  999.0,  999.0,  999.0,  999.0,  999.0,  999.0,  999.0,  999.0,  999.0,  999.0,  999.0,  999.0,  999.0,  999.0,  999.0,  999.0,  999.0,  999.0,  999.0
2015/08/26 15:00,  999.0,    0.0,   -0.8,   -3.0,   -4.9,   -5.5,   -6.1,   -6.0,   -6.0,   -6.0,   -5.7,   -5.4,   -5.6,   -5.8,   -5.2,   -4.2,   -3.0,   -0.6,    1.4,  999.0,    4.3,    5.0,    4.5,    5.8,    7.1,    8.9,    8.6,   10.9,   11.1,    9.6,  999.0,   10.6,  999.0,  999.0,  999.0,  999.0,  999.0,  999.0,  999.0,  999.0,  999.0,  999.0,  999.0,  999.0,  999.0,  999.0,  999.0,  999.0,  999.0,  999.0,  999.0,  999.0,  999.0,  999.0,  999.0,  999.0,  999.0,  999.0,  999.0,  999.0,  999.0,  999.0,  999.0,  999.0,  999.0,  999.0,  999.0,  999.0,  999.0,  999.0,  999.0,  999.0,  999.0,  999.0,  999.0,  999.0,  999.0,  999.0,  999.0,  999.0
2015/08/26 15:10,  999.0,   -0.6,   -1.9,   -2.5,   -3.9,   -6.2,   -6.4,   -6.1,   -6.0,   -5.9,   -5.7,   -5.7,   -6.0,   -5.6,   -5.0,   -3.8,   -2.6,   -0.8,    0.2,    1.2,    3.9,    4.6,    4.5,    5.6,    6.9,    8.0,    8.9,   10.5,   10.7,    9.8,    8.1,    8.4,  999.0,  999.0,  999.0,    9.6,   10.1,  999.0,  999.0,  999.0,  999.0,  999.0,  999.0,  999.0,  999.0,  999.0,  999.0,  999.0,  999.0,  999.0,  999.0,  999.0,  999.0,  999.0,  999.0,  999.0,  999.0,  999.0,  999.0,  999.0,  999.0,  999.0,  999.0,  999.0,  999.0,  999.0,  999.0,  999.0,  999.0,  999.0,  999.0,  999.0,  999.0,  999.0,  999.0,  999.0,  999.0,  999.0,  999.0,  999.0
2015/08/26 15:20,  999.0,   -0.2,   -1.5,   -2.7,   -4.0,   -5.2,   -5.9,   -5.9,   -6.0,   -6.3,   -6.5,   -6.0,   -5.7,   -5.5,   -4.5,   -3.3,   -2.1,   -0.6,    1.3,    2.2,    5.0,    5.2,    3.5,    4.6,    7.4,    7.7,    9.1,   11.0,   11.3,    8.4,  999.0,  999.0,  999.0,    7.2,    8.6,    9.4,  999.0,  999.0,  999.0,  999.0,  999.0,  999.0,  999.0,  999.0,  999.0,  999.0,  999.0,  999.0,  999.0,  999.0,  999.0,  999.0,  999.0,  999.0,  999.0,  999.0,  999.0,  999.0,  999.0,  999.0,  999.0,  999.0,  999.0,  999.0,  999.0,  999.0,  999.0,  999.0,  999.0,  999.0,  999.0,  999.0,  999.0,  999.0,  999.0,  999.0,  999.0,  999.0,  999.0,  999.0
2015/08/26 15:30,  999.0,   -0.6,   -1.1,   -2.1,   -2.3,   -4.5,   -6.3,   -6.7,   -6.9,   -6.9,   -6.4,   -6.1,   -6.0,   -5.1,   -4.2,   -2.9,   -1.3,    0.3,    2.3,    5.3,    7.0,    5.5,    3.6,    4.8,    8.5,    8.2,    9.1,   10.9,   11.5,  999.0,  999.0,  999.0,  999.0,    8.0,    8.5,  999.0,  999.0,  999.0,  999.0,  999.0,  999.0,  999.0,  999.0,  999.0,  999.0,  999.0,  999.0,  999.0,  999.0,  999.0,  999.0,  999.0,  999.0,  999.0,  999.0,  999.0,  999.0,  999.0,  999.0,  999.0,  999.0,  999.0,  999.0,  999.0,  999.0,  999.0,  999.0,  999.0,  999.0,  999.0,  999.0,  999.0,  999.0,  999.0,  999.0,  999.0,  999.0,  999.0,  999.0,  999.0
2015/08/26 15:40,  999.0,   -0.0,   -0.3,   -0.7,   -1.2,   -2.4,   -4.9,   -5.5,   -6.2,   -6.4,   -6.2,   -6.4,   -5.2,   -3.8,   -3.7,   -1.6,    0.8,    2.4,    5.5,    5.6,    5.8,    4.9,    5.1,    5.4,    8.2,    9.2,    9.7,    9.7,   10.6,    9.9,  999.0,  999.0,  999.0,    8.2,    9.3,  999.0,  999.0,  999.0,  999.0,  999.0,  999.0,  999.0,  999.0,  999.0,  999.0,    7.5,    8.5,  999.0,  999.0,  999.0,  999.0,  999.0,  999.0,  999.0,  999.0,  999.0,  999.0,  999.0,  999.0,  999.0,  999.0,  999.0,  999.0,  999.0,  999.0,  999.0,  999.0,  999.0,  999.0,  999.0,  999.0,  999.0,  999.0,  999.0,  999.0,  999.0,  999.0,  999.0,  999.0,  999.0
2015/08/26 15:50,  999.0,    0.8,    0.0,   -0.4,   -0.8,   -1.4,   -2.8,   -3.7,   -4.1,   -4.9,   -3.5,   -3.6,   -2.1,   -2.4,   -3.2,   -1.3,    0.6,    2.7,    5.4,    5.1,    6.2,    5.4,    4.5,    4.7,    8.2,    8.3,    9.8,   10.8,    9.7,    9.0,    6.0,    6.2,  999.0,    6.5,    7.7,  999.0,  999.0,  999.0,  999.0,  999.0,  999.0,  999.0,  999.0,  999.0,  999.0,  999.0,    6.0,    6.3,  999.0,    6.4,    6.8,    6.1,    6.0,    4.7,  999.0,  999.0,  999.0,  999.0,  999.0,  999.0,  999.0,  999.0,  999.0,  999.0,  999.0,  999.0,  999.0,  999.0,  999.0,  999.0,  999.0,  999.0,  999.0,  999.0,  999.0,  999.0,  999.0,  999.0,  999.0,  999.0
2015/08/26 16:00,  999.0,    0.6,    0.6,   -0.4,   -0.5,   -1.1,   -2.2,   -3.2,   -3.1,   -3.8,   -4.4,   -3.4,   -2.2,   -3.5,   -4.8,   -0.9,    1.9,  999.0,  999.0,  999.0,  999.0,    4.4,    4.7,    4.8,    5.8,    7.9,    9.4,    9.7,    9.4,  999.0,    6.4,    6.6,    7.7,    8.2,    7.9,    8.1,    9.2,  999.0,  999.0,  999.0,  999.0,  999.0,  999.0,  999.0,  999.0,  999.0,  999.0,  999.0,    6.1,    5.5,    7.1,    7.2,    6.6,    7.6,    5.3,  999.0,  999.0,  999.0,  999.0,  999.0,  999.0,  999.0,  999.0,  999.0,  999.0,  999.0,  999.0,  999.0,  999.0,  999.0,  999.0,  999.0,  999.0,  999.0,  999.0,  999.0,  999.0,  999.0,  999.0,  999.0
2015/08/26 16:10,  999.0,   -0.5,   -0.8,   -0.4,   -0.3,   -0.6,   -1.1,   -1.0,   -1.6,   -3.5,   -4.3,   -5.8,   -6.9,  999.0,  999.0,  999.0,    0.1,    0.0,   -0.8,   -3.5,   -3.4,    0.1,    3.9,    5.4,    7.1,    8.5,    9.0,    9.0,    9.8,    8.7,    6.5,    7.9,    8.4,    7.3,    7.1,    7.8,  999.0,  999.0,  999.0,  999.0,  999.0,  999.0,  999.0,  999.0,  999.0,  999.0,  999.0,    4.6,    5.0,    5.5,    6.6,    7.3,  999.0,    6.2,  999.0,  999.0,  999.0,  999.0,  999.0,  999.0,  999.0,  999.0,  999.0,  999.0,  999.0,  999.0,  999.0,  999.0,  999.0,  999.0,  999.0,  999.0,  999.0,  999.0,  999.0,  999.0,  999.0,  999.0,  999.0,  999.0
2015/08/26 16:20,  999.0,   -0.1,   -0.5,   -0.3,   -0.8,   -1.9,   -1.9,   -2.0,   -2.0,   -2.7,   -2.5,  999.0,   -0.0,   -0.1,   -0.2,   -0.2,   -0.2,   -0.2,   -0.2,   -1.2,   -1.2,   -1.6,   -2.2,   -2.2,   -1.1,   -0.6,   -0.0,   -0.3,  999.0,  999.0,    5.9,    6.2,    7.4,    5.4,    6.7,  999.0,  999.0,  999.0,  999.0,  999.0,  999.0,  999.0,  999.0,  999.0,  999.0,   -0.0,  999.0,  999.0,  999.0,  999.0,  999.0,  999.0,  999.0,  999.0,  999.0,  999.0,  999.0,  999.0,  999.0,  999.0,  999.0,  999.0,  999.0,  999.0,  999.0,  999.0,  999.0,  999.0,  999.0,  999.0,  999.0,  999.0,  999.0,  999.0,  999.0,  999.0,  999.0,  999.0,  999.0,  999.0
2015/08/26 16:30,  999.0,   -0.7,   -1.6,    0.4,   -0.8,   -2.3,   -1.9,   -2.3,   -2.4,   -3.1,   -3.8,  999.0,   -0.6,    0.1,    0.0,    0.0,    0.0,    0.2,   -0.3,   -1.5,   -2.2,   -3.0,   -3.6,   -2.4,   -1.4,   -1.8,   -0.3,  999.0,  999.0,    7.8,    6.4,    6.0,  999.0,  999.0,    6.1,    6.9,  999.0,  999.0,  999.0,  999.0,  999.0,  999.0,    0.3,  999.0,    0.2,    0.3,   -0.3,    0.0,  999.0,  999.0,  999.0,  999.0,    0.3,  999.0,   -0.2,    0.5,    0.1,  999.0,  999.0,  999.0,  999.0,  999.0,  999.0,  999.0,  999.0,  999.0,  999.0,  999.0,  999.0,  999.0,  999.0,  999.0,  999.0,  999.0,  999.0,  999.0,  999.0,  999.0,  999.0,  999.0
2015/08/26 16:40,  999.0,   -0.2,    0.2,    0.1,   -0.7,   -1.6,   -2.6,   -2.8,   -2.2,   -2.3,   -2.7,  999.0,    0.2,   -0.1,    0.2,   -1.4,   -1.1,   -0.1,   -0.6,   -1.3,   -1.3,   -3.2,   -4.3,   -3.3,   -1.7,   -0.7,    0.6,    0.3,    0.1,    1.3,    0.7,    0.1,    0.7,  999.0,  999.0,    1.2,  999.0,    0.8,  999.0,    0.3,    0.1,  999.0,    0.1,    0.3,    0.3,    0.1,    0.3,    0.2,    0.4,   -0.2,  999.0,    0.1,  999.0,    0.5,  999.0,    0.8,    1.2,  999.0,    0.8,  999.0,  999.0,   -0.1,  999.0,  999.0,  999.0,  999.0,  999.0,  999.0,  999.0,  999.0,  999.0,  999.0,  999.0,  999.0,  999.0,  999.0,  999.0,  999.0,  999.0,  999.0
2015/08/26 16:50,  999.0,    0.1,   -0.2,   -0.0,   -0.5,   -1.4,   -2.9,   -3.5,   -4.3,   -4.3,   -4.4,   -4.3,  999.0,  999.0,    0.2,   -0.4,   -0.3,   -0.3,   -0.7,   -2.3,   -1.8,   -3.7,   -3.7,   -1.8,   -0.5,   -0.0,    0.7,    0.5,    0.6,  999.0,  999.0,  999.0,  999.0,  999.0,  999.0,  999.0,  999.0,  999.0,  999.0,   -0.0,  999.0,   -0.1,    0.1,    0.1,    0.5,    0.9,    0.3,  999.0,   -0.0,  999.0,  999.0,    0.2,  999.0,  999.0,  999.0,  999.0,  999.0,  999.0,    0.4,  999.0,  999.0,   -0.1,  999.0,  999.0,  999.0,  999.0,  999.0,  999.0,  999.0,  999.0,  999.0,  999.0,  999.0,  999.0,  999.0,  999.0,  999.0,  999.0,  999.0,  999.0
2015/08/26 17:00,  999.0,  999.0,   -2.1,   -3.0,   -2.3,   -2.3,   -3.4,   -4.0,   -4.3,   -4.2,   -4.2,   -5.1,   -4.2,  999.0,  999.0,  999.0,  999.0,   -3.5,  999.0,   -3.4,   -2.7,   -4.1,   -0.2,   -2.8,    3.5,    3.8,    1.4,    1.0,  999.0,  999.0,  999.0,  999.0,    4.7,  999.0,    4.6,    5.1,  999.0,  999.0,  999.0,  999.0,   -0.4,   -0.2,    0.2,    0.2,   -0.2,   -0.1,   -0.1,  999.0,  999.0,  999.0,    0.3,   -0.0,   -0.6,  999.0,  999.0,  999.0,    0.5,    0.7,    0.4,   -0.4,   -0.0,    0.1,   -0.2,  999.0,    0.0,   -0.2,  999.0,  999.0,  999.0,  999.0,  999.0,  999.0,  999.0,  999.0,  999.0,  999.0,  999.0,  999.0,  999.0,  999.0
2015/08/26 17:10,  999.0,  999.0,   -2.9,   -3.1,   -2.6,   -2.1,   -2.7,   -3.7,   -3.2,   -3.4,   -3.7,   -5.8,   -6.3,   -5.7,   -7.3,  999.0,  999.0,  999.0,  999.0,  999.0,   -4.0,   -2.1,   -0.9,  999.0,    3.7,    2.7,  999.0,    5.6,  999.0,    5.8,    3.4,  999.0,    0.1,  999.0,    0.0,    0.2,   -0.1,  999.0,   -0.2,   -0.4,   -0.2,   -0.6,  999.0,   -0.5,    0.0,   -0.4,   -0.1,   -0.3,   -0.9,   -1.0,   -1.0,  999.0,  999.0,   -0.4,    0.6,    1.1,  999.0,    0.5,   -0.3,   -0.3,    0.2,    0.1,  999.0,  999.0,    0.0,  999.0,  999.0,  999.0,  999.0,  999.0,  999.0,  999.0,  999.0,  999.0,  999.0,  999.0,  999.0,  999.0,  999.0,  999.0
2015/08/26 17:20,  999.0,  999.0,   -1.5,   -3.2,   -2.9,   -1.9,   -3.3,   -3.6,   -2.9,   -2.2,   -2.6,   -4.2,   -5.4,   -6.2,   -7.0,   -7.7,   -7.5,   -6.4,  999.0,  999.0,   -4.5,   -3.6,   -3.3,   -1.5,   -0.1,    0.0,    0.8,    0.9,    0.6,  999.0,    0.4,    0.2,    1.1,  999.0,  999.0,   -0.2,   -0.3,  999.0,   -0.4,    0.0,   -0.6,   -0.3,   -0.0,   -0.1,   -0.1,  999.0,   -0.7,   -0.3,   -1.2,  999.0,   -2.7,   -1.7,   -0.8,  999.0,   -0.2,    0.3,    0.3,  999.0,    0.1,   -0.3,  999.0,   -0.1,  999.0,  999.0,  999.0,    0.2,  999.0,  999.0,  999.0,  999.0,  999.0,  999.0,  999.0,  999.0,  999.0,  999.0,  999.0,  999.0,  999.0,  999.0
2015/08/26 17:30,  999.0,   -2.3,   -1.8,   -3.5,   -2.3,   -1.1,   -2.4,   -3.7,   -3.2,   -2.9,   -3.2,   -4.9,   -3.4,   -1.5,    0.1,   -0.4,   -1.7,   -2.0,   -0.8,   -0.4,   -1.5,   -3.5,   -3.9,   -3.3,   -1.1,    0.1,  999.0,    2.9,    2.7,    2.0,    3.9,  999.0,  999.0,  999.0,    3.0,    4.1,    4.6,    5.4,    4.5,    6.2,    7.5,  999.0,  999.0,  999.0,  999.0,  999.0,  999.0,    3.6,    4.3,    4.7,    1.3,  999.0,  999.0,  999.0,  999.0,   -0.1,   -0.2,    0.5,   -0.0,   -0.0,   -0.1,    0.2,  999.0,  999.0,  999.0,  999.0,  999.0,  999.0,  999.0,  999.0,  999.0,  999.0,  999.0,  999.0,  999.0,  999.0,  999.0,  999.0,  999.0,  999.0
2015/08/26 17:40,  999.0,  999.0,   -2.5,   -2.1,   -2.7,   -2.3,   -3.7,   -3.0,   -2.4,   -2.8,   -3.9,   -4.7,   -5.9,   -4.9,   -4.3,   -4.0,   -2.6,   -0.9,    0.8,    1.8,    2.3,    2.4,    3.4,    5.4,    6.5,    7.1,    8.1,    8.3,    6.3,    6.4,    5.8,    5.3,  999.0,  999.0,    4.8,    4.9,    5.7,    6.1,    6.0,    6.0,    6.9,  999.0,  999.0,    5.1,  999.0,  999.0,  999.0,    4.6,    4.3,    4.6,    4.3,  999.0,  999.0,   -0.4,   -0.6,   -0.1,   -0.0,    0.2,   -0.5,   -0.0,   -0.1,  999.0,  999.0,    0.2,   -0.3,   -0.1,  999.0,    0.0,  999.0,  999.0,  999.0,  999.0,  999.0,  999.0,  999.0,  999.0,  999.0,  999.0,  999.0,  999.0
2015/08/26 17:50,  999.0,  999.0,   -2.5,   -3.3,   -2.6,   -2.7,   -3.5,   -3.8,   -3.9,   -3.9,   -4.0,   -3.9,   -5.7,   -5.4,   -5.7,   -5.1,  999.0,  999.0,  999.0,   -2.9,   -1.6,   -2.7,  999.0,  999.0,  999.0,   -0.4,   -0.1,  999.0,  999.0,  999.0,  999.0,    5.5,    6.5,    5.4,    5.1,    6.7,    7.4,    8.1,    7.4,    7.1,    6.8,    5.6,  999.0,  999.0,  999.0,    5.5,  999.0,    5.0,    5.2,  999.0,  999.0,  999.0,  999.0,  999.0,    0.2,   -0.5,    0.0,   -0.0,   -0.1,   -0.1,    0.3,    0.5,  999.0,   -0.3,    0.2,  999.0,    0.1,    0.1,  999.0,  999.0,  999.0,  999.0,  999.0,  999.0,  999.0,  999.0,  999.0,  999.0,  999.0,  999.0
2015/08/26 18:00,  999.0,  999.0,   -2.3,   -3.0,   -1.8,   -2.2,   -3.1,   -4.4,   -4.4,   -4.5,   -4.3,   -5.8,   -5.9,   -6.4,   -6.4,  999.0,  999.0,   -5.8,   -3.0,   -2.6,   -1.7,   -0.3,   -0.9,   -0.0,    1.6,    3.8,    3.2,    3.7,  999.0,  999.0,  999.0,    6.3,    7.0,    6.8,    4.6,    4.4,    5.5,  999.0,    5.0,  999.0,    5.3,    4.3,    4.9,    5.3,    6.0,  999.0,    6.1,    5.9,    5.7,    6.3,  999.0,  999.0,  999.0,    0.3,   -0.1,   -0.2,  999.0,   -0.4,   -0.1,   -0.0,   -0.2,    0.2,    0.1,   -0.0,    0.0,    0.1,  999.0,    0.1,  999.0,  999.0,  999.0,  999.0,  999.0,  999.0,  999.0,  999.0,  999.0,  999.0,  999.0,  999.0
2015/08/26 18:10,  999.0,  999.0,   -2.0,   -2.8,   -1.8,   -1.9,   -3.0,   -3.9,   -4.7,   -5.3,   -5.9,   -7.5,   -6.6,   -6.0,   -5.7,   -3.8,   -2.9,   -1.1,  999.0,    2.3,    4.0,    4.4,    4.1,    5.0,    6.2,    6.5,    7.1,    6.2,    6.6,  999.0,  999.0,    6.0,    7.2,    7.8,    7.2,    5.2,    4.6,  999.0,    6.0,    6.1,    5.8,  999.0,    5.6,    5.0,  999.0,  999.0,    7.3,    7.6,    7.1,    6.4,    7.2,  999.0,  999.0,  999.0,   -0.0,   -0.0,  999.0,  999.0,   -0.0,    0.1,    0.1,  999.0,    0.1,   -0.2,  999.0,    0.2,  999.0,  999.0,  999.0,  999.0,  999.0,  999.0,  999.0,  999.0,  999.0,  999.0,  999.0,  999.0,  999.0,  999.0
2015/08/26 18:20,  999.0,  999.0,   -2.3,   -2.7,   -1.7,   -2.4,   -3.1,   -3.8,   -3.9,   -4.4,   -4.8,   -6.2,   -4.5,   -4.2,   -4.6,   -4.6,   -4.1,   -2.7,  999.0,    5.1,    5.7,    4.1,    3.6,    4.8,    6.4,  999.0,  999.0,    6.4,    6.4,    6.3,  999.0,    6.0,    6.7,    6.0,    5.3,    5.9,    5.3,    5.5,  999.0,  999.0,  999.0,  999.0,  999.0,    0.6,    0.9,  999.0,    1.0,    2.2,    1.4,   -0.3,   -0.6,    0.0,  999.0,    0.2,    0.4,    0.3,  999.0,    0.2,   -0.1,    0.1,  999.0,   -0.1,  999.0,   -0.3,  999.0,  999.0,  999.0,  999.0,  999.0,  999.0,  999.0,  999.0,  999.0,  999.0,  999.0,  999.0,  999.0,  999.0,  999.0,  999.0
2015/08/26 18:30,  999.0,   -0.6,   -1.5,   -1.7,   -2.8,  999.0,   -3.1,   -0.8,   -1.8,   -2.5,   -3.7,   -4.1,   -4.2,   -4.2,  999.0,  999.0,  999.0,  999.0,    5.1,  999.0,  999.0,    4.3,    4.7,    4.8,    6.3,    6.6,  999.0,    6.6,    7.0,    7.2,    7.3,    6.9,    7.0,    4.9,    3.7,    4.4,    5.9,    6.8,  999.0,  999.0,  999.0,  999.0,    0.2,    0.3,  999.0,  999.0,    0.7,    1.0,  999.0,  999.0,    1.0,    0.5,  999.0,    0.3,   -0.1,   -0.1,  999.0,    0.4,    0.1,   -0.3,   -0.2,    0.0,   -0.2,   -0.1,  999.0,  999.0,  999.0,  999.0,  999.0,  999.0,  999.0,  999.0,  999.0,  999.0,  999.0,  999.0,  999.0,  999.0,  999.0,  999.0
2015/08/26 18:40,  999.0,   -1.2,   -1.9,   -2.8,   -2.1,   -0.3,   -1.2,   -3.5,   -5.7,   -5.1,   -6.0,   -7.3,   -6.3,  999.0,  999.0,  999.0,  999.0,  999.0,  999.0,   -0.8,  999.0,  999.0,    3.5,    4.7,    6.0,    6.2,    5.8,    6.1,    5.6,    5.4,    5.5,    5.5,    5.2,    4.6,    3.6,    4.4,    6.4,    6.8,  999.0,  999.0,    7.2,    6.6,    6.4,  999.0,    6.3,    6.0,    6.9,    6.0,    5.9,    6.7,    4.9,  999.0,  999.0,   -0.2,    0.0,  999.0,    0.2,   -0.1,    0.0,    0.0,   -0.0,   -0.2,    0.1,   -0.4,   -0.1,    0.1,  999.0,    0.1,  999.0,  999.0,  999.0,  999.0,  999.0,  999.0,  999.0,  999.0,  999.0,  999.0,  999.0,  999.0
2015/08/26 18:50,  999.0,  999.0,   -0.3,   -2.2,   -3.2,   -2.6,   -2.8,   -3.9,   -5.5,   -6.1,   -6.6,   -6.9,   -6.2,   -5.4,  999.0,  999.0,  999.0,    0.1,   -0.1,   -0.2,   -0.2,   -1.1,  999.0,    4.2,    5.5,    6.7,    7.5,    5.1,    4.3,    3.5,    3.6,    3.9,    5.3,    5.1,    4.5,    3.4,    5.4,    7.0,  999.0,    8.1,    8.0,    6.9,    6.0,  999.0,  999.0,   -0.1,    0.3,    2.3,    2.2,  999.0,  999.0,  999.0,    0.1,   -0.1,    0.1,    0.3,    0.4,    0.1,   -0.0,    0.1,   -0.1,    0.0,    0.0,  999.0,    0.1,   -0.3,  999.0,    0.0,  999.0,  999.0,  999.0,  999.0,  999.0,  999.0,  999.0,  999.0,  999.0,  999.0,  999.0,  999.0
2015/08/26 19:00,  999.0,  999.0,  999.0,   -2.0,   -3.5,   -4.6,   -4.7,   -5.5,   -5.5,   -5.9,   -5.4,   -5.7,   -6.6,  999.0,  999.0,    0.7,    0.7,    0.7,    0.2,   -0.6,   -0.5,   -0.6,  999.0,    3.7,    5.0,    5.4,    6.0,  999.0,    0.6,  999.0,  999.0,    6.1,    5.9,    5.9,    4.6,    5.4,    7.4,    8.9,  999.0,    8.4,    8.5,    7.8,    6.4,    7.4,    8.0,  999.0,  999.0,    9.1,    9.8,  999.0,  999.0,  999.0,  999.0,    0.3,  999.0,   -0.2,    0.2,    0.1,    0.0,    0.1,   -0.2,  999.0,   -0.1,  999.0,  999.0,   -0.1,  999.0,    0.2,  999.0,  999.0,  999.0,  999.0,  999.0,  999.0,  999.0,  999.0,  999.0,  999.0,  999.0,  999.0
2015/08/26 19:10,  999.0,  999.0,    0.7,   -0.2,   -1.7,   -2.5,   -2.2,   -4.2,   -4.2,  999.0,  999.0,   -7.8,   -7.3,   -6.7,   -5.2,   -4.5,   -4.6,   -2.3,  999.0,  999.0,  999.0,    1.9,    0.8,    1.8,    4.3,    5.1,    5.2,    5.1,    5.5,    5.9,    6.6,    6.7,    6.6,    6.6,    7.3,    5.5,    7.2,  999.0,  999.0,    7.4,    6.8,  999.0,  999.0,  999.0,  999.0,  999.0,  999.0,    5.5,    6.1,    7.5,  999.0,  999.0,  999.0,   -0.1,    0.1,    0.1,    0.3,   -0.4,    0.1,   -0.1,    0.0,    0.5,   -0.4,    0.2,  999.0,    0.2,  999.0,  999.0,  999.0,  999.0,  999.0,  999.0,  999.0,  999.0,  999.0,  999.0,  999.0,  999.0,  999.0,  999.0
2015/08/26 19:20,  999.0,  999.0,    0.3,   -1.1,   -2.8,   -4.7,   -5.2,   -5.9,   -6.3,   -6.3,   -6.2,   -5.4,   -4.7,  999.0,   -0.0,    0.2,    0.9,    0.6,    0.3,   -0.2,   -0.5,   -0.6,  999.0,   -1.2,  999.0,  999.0,  999.0,    4.9,    5.3,    5.5,  999.0,  999.0,    5.6,    5.6,    4.6,    4.9,    6.3,    6.6,    7.2,  999.0,    5.6,  999.0,  999.0,  999.0,  999.0,   -0.2,   -0.2,   -0.1,  999.0,  999.0,    1.1,   -0.1,  999.0,    0.2,    0.1,   -0.3,    0.1,   -0.1,    0.0,    0.1,    0.1,    0.1,    0.2,  999.0,    0.1,    0.1,  999.0,   -0.2,  999.0,  999.0,  999.0,  999.0,   -0.2,  999.0,  999.0,  999.0,  999.0,  999.0,  999.0,  999.0
2015/08/26 19:30,  999.0,  999.0,   -0.4,   -0.1,   -1.4,   -2.0,   -2.2,   -2.1,   -1.6,   -1.4,   -2.4,   -4.5,   -4.7,   -6.0,   -0.1,   -1.2,   -1.1,   -2.0,   -1.5,   -1.7,   -1.2,   -0.8,  999.0,  999.0,  999.0,    3.8,    3.9,    4.0,    4.7,    5.3,    5.3,  999.0,    7.1,    6.0,    6.2,    6.6,    7.2,    7.2,    7.9,  999.0,  999.0,  999.0,  999.0,  999.0,   -0.3,  999.0,    0.1,  999.0,    0.7,  999.0,    0.6,    0.3,  999.0,  999.0,    0.0,    0.0,    0.5,    0.0,    0.1,   -0.2,   -0.1,    0.1,  999.0,    0.2,   -0.4,   -0.2,  999.0,    0.1,  999.0,  999.0,  999.0,  999.0,  999.0,  999.0,  999.0,  999.0,  999.0,  999.0,  999.0,  999.0
2015/08/26 19:40,  999.0,   -0.5,    0.0,   -0.1,    0.2,   -0.6,   -1.0,   -1.4,   -1.3,   -2.0,   -3.8,   -4.7,   -4.9,   -5.4,   -6.9,   -6.7,   -7.2,   -6.4,   -5.4,   -4.8,   -4.5,   -3.3,   -1.2,   -0.3,   -0.5,   -0.6,    0.8,    3.2,    4.3,    4.8,    4.9,    3.9,    5.3,    5.9,    6.8,    5.5,    6.5,    5.9,    6.6,    7.8,  999.0,    6.4,    6.6,    7.5,    7.4,    7.3,  999.0,  999.0,    7.1,    7.8,  999.0,  999.0,  999.0,   -0.0,    0.4,   -0.1,    0.2,    0.1,    0.0,    0.0,    0.1,   -0.1,  999.0,    0.5,  999.0,    0.0,  999.0,   -0.1,  999.0,  999.0,  999.0,  999.0,  999.0,  999.0,  999.0,  999.0,  999.0,  999.0,  999.0,  999.0
2015/08/26 19:50,  999.0,   -1.4,   -1.6,   -1.3,   -0.5,   -0.7,   -1.8,   -2.3,   -2.2,   -3.5,   -3.4,   -1.8,   -2.1,   -3.9,   -4.8,   -6.9,   -6.9,   -6.6,   -4.8,   -4.5,  999.0,  999.0,    3.1,    2.9,    3.7,    5.2,    4.7,    4.3,    4.4,    4.8,    4.1,    4.3,  999.0,  999.0,    3.4,    5.7,    5.8,    4.8,    6.4,    8.9,    9.3,    9.3,    9.1,    8.5,    9.2,    7.2,  999.0,    7.4,    8.1,    8.4,  999.0,  999.0,  999.0,    0.5,    0.0,  999.0,   -0.3,   -0.2,    0.0,    0.3,    0.0,    0.1,    0.4,  999.0,  999.0,  999.0,    0.1,  999.0,  999.0,  999.0,  999.0,  999.0,  999.0,  999.0,  999.0,  999.0,  999.0,  999.0,  999.0,  999.0
2015/08/26 20:00,  999.0,  999.0,    0.4,    1.5,    1.3,   -1.5,   -2.2,   -2.9,   -4.2,   -4.6,   -7.3,   -6.3,   -7.6,   -6.9,   -6.9,   -6.8,   -5.8,   -1.7,    0.6,    2.4,    2.0,    0.9,    0.9,    2.4,    3.0,    2.6,    3.7,    3.5,    2.7,    1.8,    2.6,    1.0,  999.0,    1.1,    3.8,    4.7,    5.3,    5.2,    5.8,    7.2,    8.1,    8.6,    8.3,    7.5,    7.9,    8.2,    9.0,    7.6,    8.3,    7.9,  999.0,  999.0,   -0.3,   -0.2,    0.1,    0.3,   -0.2,    0.4,    0.1,    0.0,   -0.2,   -0.2,  999.0,   -0.3,   -0.1,   -0.3,   -0.3,   -0.1,  999.0,  999.0,  999.0,  999.0,    0.1,    0.2,  999.0,  999.0,  999.0,  999.0,  999.0,  999.0
2015/08/26 20:10,  999.0,  999.0,    0.2,    1.0,   -0.3,   -1.6,   -3.4,   -5.0,   -6.2,   -6.6,   -7.0,   -6.8,   -5.8,   -5.9,   -6.0,  999.0,  999.0,   -4.2,   -4.7,   -5.4,  999.0,  999.0,    0.9,    0.3,    2.5,    2.8,    3.8,    2.0,    4.0,    3.4,    4.5,    3.6,    3.2,    3.1,    3.7,    4.9,    6.7,    4.8,    4.6,    5.3,    6.3,    7.2,    6.9,    7.2,    6.9,    8.3,    8.7,    8.0,    7.7,    7.7,    6.8,  999.0,  999.0,   -0.2,    0.3,   -0.6,    0.2,   -0.2,   -0.2,   -0.5,    0.1,    0.0,   -0.2,   -0.2,    0.3,  999.0,    0.5,  999.0,  999.0,  999.0,  999.0,  999.0,  999.0,  999.0,  999.0,  999.0,  999.0,  999.0,  999.0,  999.0
2015/08/26 20:20,  999.0,  999.0,   -2.9,  999.0,   -1.7,   -4.5,   -5.2,   -5.6,   -3.1,   -2.3,   -3.7,   -4.8,   -5.0,   -5.9,   -5.4,  999.0,  999.0,  999.0,  999.0,  999.0,   -1.1,   -1.5,   -0.8,    0.5,    2.5,    3.6,    2.6,    2.4,    2.9,    3.6,    3.1,    2.6,    4.6,    5.0,    5.1,    5.1,    4.6,    3.6,    5.8,    6.1,    7.4,    7.6,    7.5,    7.2,    7.7,    8.2,  999.0,    8.8,  999.0,  999.0,  999.0,  999.0,    0.2,    0.0,   -0.1,    0.0,    0.0,   -0.0,   -0.1,   -0.2,    0.0,   -0.2,   -0.3,    0.0,    0.2,   -0.1,   -0.1,    0.3,    0.1,  999.0,  999.0,  999.0,  999.0,  999.0,  999.0,  999.0,  999.0,  999.0,  999.0,  999.0
2015/08/26 20:30,  999.0,  999.0,  999.0,  999.0,  999.0,  999.0,  999.0,   -4.5,   -5.4,   -5.1,   -5.6,   -6.6,   -6.8,   -6.1,   -6.0,   -6.5,   -7.5,   -7.7,  999.0,  999.0,  999.0,   -3.0,    1.6,  999.0,  999.0,  999.0,    1.0,    2.6,  999.0,  999.0,  999.0,  999.0,    4.9,    4.3,    3.6,    2.0,    1.4,    2.9,    4.3,    5.4,    6.8,    7.9,    7.9,    7.7,  999.0,  999.0,  999.0,  999.0,  999.0,  999.0,  999.0,   -0.0,   -0.1,   -0.3,    0.1,   -0.1,   -0.0,    0.0,    0.1,    0.2,   -0.1,   -0.1,    0.0,   -0.2,    0.2,    0.1,    0.1,    0.1,    0.3,  999.0,  999.0,  999.0,  999.0,  999.0,  999.0,  999.0,  999.0,  999.0,  999.0,  999.0
2015/08/26 20:40,  999.0,  999.0,    0.5,    2.6,    1.5,   -1.2,   -3.2,   -4.2,   -5.0,   -5.1,   -5.5,   -5.6,   -5.5,   -6.0,   -4.4,   -1.8,   -0.1,   -0.2,   -0.1,   -0.5,   -0.1,   -0.8,  999.0,    1.2,    2.8,    3.6,    3.7,    3.9,    4.4,    4.4,    3.7,    3.9,    3.8,    3.2,    0.6,   -0.8,    0.2,    1.1,    3.8,    5.6,    7.2,  999.0,  999.0,  999.0,    0.3,    0.3,    0.3,   -0.3,   -0.9,   -1.7,   -0.2,    0.3,    0.2,   -0.4,   -0.0,    0.1,    0.0,   -0.1,   -0.0,   -0.0,    0.0,   -0.1,   -0.1,   -0.1,   -0.1,   -0.0,   -0.0,  999.0,  999.0,  999.0,  999.0,  999.0,  999.0,  999.0,  999.0,  999.0,  999.0,  999.0,  999.0,  999.0
2015/08/26 20:50,  999.0,  999.0,   -0.0,    2.3,    1.9,   -0.5,   -2.1,   -3.8,   -4.7,   -5.3,   -6.4,   -7.2,   -8.4,   -7.9,   -8.2,   -4.8,   -2.5,   -1.1,   -0.2,   -0.8,    0.0,    0.9,  999.0,    2.2,    3.0,    3.8,    3.9,    4.5,  999.0,    4.5,    5.2,    4.6,    3.7,    1.9,   -0.8,   -1.6,   -1.6,   -1.1,    1.9,    3.6,    4.8,    5.3,    0.0,   -0.1,   -0.1,    0.1,   -0.2,   -0.1,   -0.3,   -0.3,   -0.1,    0.0,   -0.1,   -0.1,   -0.0,   -0.3,    0.0,    0.1,    0.0,   -0.0,   -0.0,   -0.0,   -0.1,   -0.2,    0.0,   -0.3,    0.0,  999.0,    0.2,  999.0,  999.0,  999.0,  999.0,  999.0,  999.0,  999.0,  999.0,  999.0,  999.0,  999.0
2015/08/26 21:00,  999.0,   -1.1,   -0.5,    1.1,    1.4,   -0.7,   -2.4,   -4.0,   -4.8,   -6.2,   -7.1,   -7.4,   -7.0,   -6.2,   -5.3,   -3.4,   -1.3,   -1.3,   -0.3,   -0.7,   -0.8,  999.0,   -0.8,   -0.8,    1.4,    2.8,    3.4,    4.8,    5.6,  999.0,    4.8,    4.8,    3.4,    1.4,    0.1,   -0.1,    0.3,    0.8,    2.0,    3.0,    3.5,    3.8,  999.0,  999.0,   -0.0,    0.0,    0.0,    0.0,   -0.0,    0.3,   -0.1,   -0.2,    0.1,    0.1,   -0.3,   -0.2,    0.2,   -0.1,   -0.1,    0.2,   -0.0,   -0.0,   -0.1,  999.0,   -0.2,    0.1,   -0.1,  999.0,   -0.0,  999.0,  999.0,  999.0,  999.0,  999.0,  999.0,  999.0,  999.0,  999.0,  999.0,  999.0
2015/08/26 21:10,  999.0,  999.0,   -0.6,    0.4,   -0.2,   -1.4,   -2.3,  999.0,   -3.1,   -3.7,   -4.4,   -3.6,   -4.5,   -3.8,   -3.1,   -0.4,   -1.0,   -0.5,   -0.3,   -0.7,   -0.5,   -1.2,    0.5,    1.0,  999.0,    3.4,  999.0,    3.9,  999.0,    4.6,    3.8,    3.5,    2.9,    2.2,   -0.1,   -1.1,    0.1,    0.8,    0.8,    2.4,    1.6,    2.2,    3.7,  999.0,   -0.6,   -0.0,   -0.0,   -0.4,   -0.3,  999.0,    0.0,    0.1,    0.3,    0.1,   -0.0,    0.2,    0.0,    0.1,    0.1,   -0.1,    0.0,   -0.0,    0.1,  999.0,  999.0,  999.0,    0.1,  999.0,   -0.0,  999.0,  999.0,  999.0,  999.0,  999.0,  999.0,  999.0,  999.0,  999.0,  999.0,  999.0
2015/08/26 21:20,  999.0,    0.4,   -0.3,    0.3,   -0.1,   -0.8,   -1.2,   -1.5,   -1.6,   -2.3,   -1.6,   -1.6,   -2.4,   -2.4,   -3.2,  999.0,  999.0,  999.0,  999.0,  999.0,    1.2,    0.3,    0.7,    1.4,    2.1,    1.8,    2.8,    3.7,   -0.2,  999.0,  999.0,    1.6,   -0.4,   -0.7,   -1.1,   -1.0,    0.2,   -0.0,    0.2,    1.6,    1.1,    2.3,    3.7,  999.0,  999.0,  999.0,  999.0,   -0.1,  999.0,    0.0,  999.0,  999.0,  999.0,  999.0,   -0.2,    0.2,   -0.0,    0.2,   -0.1,    0.1,    0.1,    0.1,   -0.3,  999.0,  999.0,  999.0,    0.1,    0.1,    0.1,  999.0,  999.0,  999.0,  999.0,  999.0,  999.0,  999.0,  999.0,  999.0,  999.0,  999.0
2015/08/26 21:30,  999.0,   -0.3,    0.2,   -0.1,   -0.1,   -1.0,   -1.4,   -1.7,   -1.8,   -2.6,   -2.3,   -3.2,  999.0,  999.0,   -2.0,    0.6,    0.2,   -2.0,   -1.2,   -1.5,   -0.2,   -1.1,    0.8,   -0.2,   -0.0,   -0.5,   -0.2,   -0.4,   -0.3,   -0.2,  999.0,  999.0,    0.1,   -0.5,   -0.6,   -0.7,    0.2,    1.8,    1.4,  999.0,  999.0,    2.3,    2.8,    4.3,    5.7,   -0.5,  999.0,    0.0,    0.1,   -0.1,    0.2,    0.0,    0.1,   -0.1,   -0.5,    0.0,    0.4,    0.0,   -0.3,   -0.5,   -0.2,   -0.2,   -0.1,  999.0,  999.0,  999.0,    0.0,  999.0,    0.1,  999.0,  999.0,  999.0,  999.0,  999.0,  999.0,  999.0,  999.0,  999.0,  999.0,  999.0
2015/08/26 21:40,  999.0,    0.4,    0.4,    1.7,   -0.0,   -1.7,   -2.3,   -2.3,   -2.5,   -4.3,   -4.1,  999.0,  999.0,  999.0,   -1.6,  999.0,  999.0,   -0.4,   -0.7,   -1.1,   -0.1,   -0.6,   -0.4,   -0.1,    0.1,    0.2,   -1.3,   -0.2,    0.2,   -0.5,  999.0,  999.0,  999.0,   -0.1,   -0.6,    0.3,  999.0,    2.4,  999.0,  999.0,  999.0,  999.0,    3.2,  999.0,  999.0,  999.0,  999.0,   -0.9,   -1.2,  999.0,   -0.3,  999.0,   -0.2,    0.0,   -0.1,   -0.3,   -0.2,   -0.1,    0.1,   -0.0,   -0.1,    0.0,   -0.1,   -0.1,    0.3,   -0.1,    0.3,  999.0,   -0.3,  999.0,  999.0,  999.0,  999.0,  999.0,  999.0,  999.0,  999.0,  999.0,  999.0,  999.0
2015/08/26 21:50,  999.0,   -2.7,  999.0,  999.0,   -0.3,   -0.8,   -1.6,   -2.0,   -2.0,   -4.1,   -4.8,   -3.8,   -2.9,   -4.4,   -3.2,   -6.8,  999.0,   -3.3,   -1.8,   -2.0,   -0.6,   -0.7,   -0.7,   -0.4,   -0.1,   -0.5,  999.0,   -0.4,   -0.5,   -0.3,  999.0,  999.0,  999.0,    0.1,   -1.1,    0.2,    1.8,    1.6,    1.2,    1.5,    1.2,    2.0,    4.1,  999.0,   -0.6,   -1.1,   -0.6,   -1.2,   -1.5,  999.0,  999.0,   -0.2,   -0.0,    0.1,   -0.1,  999.0,   -0.3,   -0.0,   -0.2,    0.1,   -0.2,   -0.0,    0.3,  999.0,  999.0,    0.3,  999.0,  999.0,  999.0,  999.0,  999.0,  999.0,  999.0,  999.0,  999.0,  999.0,  999.0,  999.0,  999.0,  999.0
2015/08/26 22:00,  999.0,  999.0,    0.1,    0.9,   -0.3,   -1.2,   -2.3,   -2.7,   -2.6,   -4.2,  999.0,   -4.2,   -4.0,   -4.8,   -4.3,   -6.1,   -5.5,   -4.2,   -1.9,   -0.2,   -0.1,  999.0,    2.4,    1.1,   -0.1,   -0.0,  999.0,  999.0,   -0.5,   -0.1,  999.0,  999.0,  999.0,   -0.4,   -0.0,    0.8,    0.9,    0.6,    0.7,    0.8,  999.0,   -0.3,  999.0,  999.0,  999.0,  999.0,   -0.6,   -1.2,   -0.9,   -0.8,  999.0,  999.0,    0.0,    0.2,   -0.1,    0.0,   -0.1,    0.1,   -0.0,    0.2,    0.4,   -0.0,    0.1,  999.0,    0.1,  999.0,    0.3,  999.0,    0.1,  999.0,  999.0,  999.0,  999.0,  999.0,  999.0,  999.0,  999.0,  999.0,  999.0,  999.0
2015/08/26 22:10,  999.0,    0.8,    0.2,    0.1,   -0.3,   -1.5,   -2.5,   -3.4,   -3.3,   -2.6,   -4.3,  999.0,   -2.4,   -2.5,   -2.3,   -3.2,   -4.4,   -3.4,   -0.2,    2.4,    3.6,    3.1,    2.7,    2.6,    2.2,    0.3,   -0.5,    0.8,    0.2,   -0.3,    0.5,  999.0,  999.0,  999.0,    0.9,    1.6,    0.9,    0.9,    0.5,   -0.3,   -0.0,    0.4,    0.2,  999.0,  999.0,   -1.0,  999.0,   -1.2,   -1.8,   -1.3,  999.0,  999.0,    0.5,   -0.1,    0.5,    0.3,    0.0,    0.0,    0.1,   -0.0,    0.2,    0.0,  999.0,   -0.1,    0.0,    0.1,   -0.1,  999.0,    0.1,  999.0,  999.0,  999.0,  999.0,  999.0,  999.0,  999.0,  999.0,  999.0,  999.0,  999.0
2015/08/26 22:20,  999.0,    1.4,    0.7,    0.0,    0.1,   -1.0,   -3.0,   -3.2,   -4.6,   -5.3,   -6.0,   -7.0,   -6.8,   -7.8,   -6.5,   -7.8,   -6.5,   -5.7,   -2.1,    0.4,    1.7,    1.6,    1.2,    0.5,    2.5,    1.8,    1.9,    1.7,    1.2,    1.5,    0.3,  999.0,  999.0,  999.0,    1.9,    1.3,    0.9,    0.2,   -0.5,   -0.6,   -0.1,   -0.0,    0.6,  999.0,  999.0,   -0.3,  999.0,  999.0,   -1.6,   -1.0,   -0.3,  999.0,    0.1,  999.0,   -0.4,    0.0,   -0.1,    0.1,   -0.0,    0.1,    0.2,   -0.0,   -0.1,   -0.1,    0.0,   -0.0,   -0.4,  999.0,  999.0,  999.0,  999.0,  999.0,   -0.0,   -0.2,  999.0,  999.0,  999.0,  999.0,  999.0,  999.0
2015/08/26 22:30,  999.0,    0.4,   -0.2,   -0.5,   -0.5,   -2.0,   -3.6,   -4.9,   -5.8,   -6.4,   -7.2,   -7.8,   -8.7,   -8.5,   -7.3,   -7.4,   -7.0,   -5.1,   -2.9,   -2.1,   -0.9,   -0.5,    0.0,   -0.0,    1.8,    2.1,    1.9,    2.6,    2.6,    2.7,  999.0,    4.6,  999.0,    1.6,    0.8,    0.9,   -0.3,   -0.4,   -0.6,   -0.4,   -0.7,  999.0,    0.2,    1.7,    1.5,    1.7,    3.8,  999.0,  999.0,  999.0,  999.0,  999.0,   -0.3,   -0.0,    0.2,    0.0,   -0.2,   -0.1,   -0.1,    0.2,    0.2,    0.1,    0.1,  999.0,    0.0,    0.3,    0.3,  999.0,  999.0,  999.0,  999.0,  999.0,  999.0,  999.0,  999.0,  999.0,  999.0,  999.0,  999.0,  999.0
2015/08/26 22:40,  999.0,   -0.3,   -0.8,   -0.8,   -1.1,   -2.4,   -3.6,   -4.7,   -5.8,   -6.3,   -6.6,   -7.3,   -7.6,   -7.4,   -6.5,   -6.6,   -5.9,   -4.2,   -3.3,   -3.0,  999.0,    3.4,    3.4,    4.8,    5.6,    5.4,    4.3,    4.7,    1.9,    2.6,    3.1,    3.8,    4.8,    4.0,    2.4,    1.8,  999.0,   -0.5,   -0.8,   -0.3,   -0.1,    1.0,    0.1,    0.1,    0.6,   -0.0,    3.1,  999.0,  999.0,  999.0,  999.0,   -0.2,   -0.1,   -0.1,   -0.1,   -0.1,    0.1,    0.3,    0.3,    0.2,   -0.1,    0.0,    0.3,    0.0,    0.1,    0.0,    0.1,  999.0,   -0.1,  999.0,  999.0,  999.0,  999.0,   -0.0,  999.0,  999.0,  999.0,  999.0,  999.0,  999.0
2015/08/26 22:50,  999.0,   -1.2,   -1.0,   -0.6,   -1.7,   -3.1,   -4.4,   -6.0,   -6.3,   -7.5,   -7.8,   -7.2,   -6.8,   -6.7,   -6.2,   -7.4,   -5.4,   -4.0,   -4.2,   -3.2,   -2.9,   -1.1,   -2.1,    0.6,    1.9,    2.9,    4.2,    4.0,    1.8,    0.3,   -0.8,   -1.0,   -0.5,    0.1,   -1.9,   -2.3,  999.0,  999.0,  999.0,   -0.9,   -0.6,   -0.4,    0.2,    0.6,    0.4,    0.2,    1.3,  999.0,  999.0,   -0.1,   -0.1,   -0.3,   -0.0,   -0.0,   -0.1,   -0.2,    0.1,   -0.0,   -0.1,    0.1,    0.1,   -0.2,   -0.1,    0.0,    0.1,  999.0,   -0.0,  999.0,    0.0,  999.0,  999.0,  999.0,    0.1,   -0.1,  999.0,  999.0,  999.0,  999.0,  999.0,  999.0
2015/08/26 23:00,  999.0,   -0.6,   -1.0,   -0.9,   -1.3,   -2.4,   -3.8,   -5.7,   -7.1,   -7.3,   -6.2,   -4.9,   -4.8,   -4.9,   -4.5,   -7.6,   -6.8,   -7.6,   -9.0,   -8.8,   -7.5,   -6.9,   -6.7,   -5.8,   -4.7,   -4.4,   -3.6,   -2.0,   -1.9,   -1.0,   -0.3,   -0.2,   -0.3,    0.3,   -1.2,   -2.1,   -2.0,   -3.4,  999.0,   -1.3,   -0.4,    0.2,    0.4,    1.4,    1.2,    0.8,    1.6,  999.0,   -0.2,   -0.3,    0.2,    0.2,    0.1,    0.2,   -0.1,    0.4,    0.3,    0.1,   -0.3,   -0.1,    0.3,   -0.0,    0.1,   -0.3,   -0.0,   -0.2,   -0.1,  999.0,    0.1,  999.0,  999.0,  999.0,  999.0,  999.0,  999.0,  999.0,  999.0,  999.0,  999.0,  999.0
2015/08/26 23:10,  999.0,   -0.1,   -0.7,   -0.4,   -1.0,   -2.1,   -3.6,   -4.5,   -5.1,   -6.0,   -6.0,   -6.3,   -5.9,   -6.3,   -5.9,   -7.5,   -6.8,   -6.6,   -6.9,   -5.6,   -4.4,   -3.7,   -2.9,   -1.2,   -1.2,   -0.1,    1.4,    0.3,   -3.3,   -2.3,   -0.5,   -0.6,   -2.4,   -2.4,   -3.2,   -3.3,   -3.6,   -5.5,   -3.6,   -2.6,   -2.3,  999.0,  999.0,  999.0,  999.0,   -0.2,  999.0,  999.0,  999.0,  999.0,  999.0,   -0.3,   -0.5,   -0.4,    0.3,   -0.1,   -0.1,   -0.2,    0.1,   -0.4,   -0.2,   -0.0,  999.0,  999.0,    0.1,  999.0,   -0.1,  999.0,    0.0,  999.0,  999.0,  999.0,  999.0,  999.0,  999.0,  999.0,  999.0,  999.0,  999.0,  999.0
2015/08/26 23:20,  999.0,   -1.8,   -3.6,   -2.4,   -1.7,   -2.8,   -4.0,   -5.6,   -6.7,   -7.1,   -7.1,   -6.5,   -6.3,   -6.2,   -6.7,   -7.9,   -6.8,   -5.9,   -5.4,   -5.2,   -4.0,   -1.8,   -0.4,    0.0,    1.1,    1.8,    1.1,    1.2,    0.8,    0.3,   -0.4,   -0.5,   -0.7,   -1.4,   -1.9,   -2.3,   -1.6,  999.0,   -3.4,   -3.5,   -2.7,   -2.3,   -1.7,   -1.4,   -1.5,  999.0,   -3.4,   -2.3,  999.0,  999.0,  999.0,   -1.3,  999.0,    0.0,    0.3,    0.2,   -0.2,    0.1,   -0.1,   -0.1,   -0.1,    0.3,    0.1,   -0.1,   -0.3,  999.0,   -0.1,    0.4,    0.1,  999.0,  999.0,  999.0,  999.0,  999.0,  999.0,  999.0,  999.0,  999.0,  999.0,  999.0
2015/08/26 23:30,  999.0,   -1.4,   -1.9,   -1.8,   -2.3,   -3.2,   -4.3,   -5.6,   -6.4,   -6.7,   -6.5,   -6.0,   -4.8,   -5.2,   -7.0,   -7.3,   -6.0,   -6.0,   -7.0,   -7.0,   -6.0,   -4.5,   -2.9,   -2.7,   -2.2,   -1.4,   -0.5,    0.5,    0.9,    0.6,    0.3,    0.1,   -1.0,   -2.0,   -3.3,   -4.9,   -5.9,   -6.6,   -6.5,   -6.9,   -6.7,   -6.5,   -6.4,   -6.1,   -6.0,   -5.9,   -4.8,   -4.1,   -1.7,  999.0,  999.0,  999.0,  999.0,  999.0,   -0.3,    0.2,    0.4,   -0.2,    0.1,    0.0,   -0.1,   -0.2,  999.0,   -0.2,    0.0,   -0.3,  999.0,  999.0,  999.0,  999.0,  999.0,  999.0,  999.0,    0.1,  999.0,  999.0,  999.0,  999.0,  999.0,  999.0
2015/08/26 23:40,  999.0,   -1.1,   -2.1,   -1.7,   -1.7,   -1.7,   -2.9,   -4.1,   -5.8,   -6.7,   -6.7,   -5.7,   -4.9,   -6.3,   -8.2,   -7.6,   -7.0,   -6.0,   -6.4,   -6.0,   -5.2,   -4.1,   -3.3,   -2.0,   -1.5,   -0.9,   -0.5,   -0.0,   -0.2,   -0.3,   -0.4,   -1.1,   -1.9,   -3.5,   -4.7,   -5.1,   -4.8,   -4.6,   -4.1,   -3.9,   -3.6,   -3.2,   -2.3,   -4.2,   -1.9,   -0.3,   -0.3,   -0.5,   -0.5,   -2.7,   -4.2,  999.0,  999.0,    0.1,    0.2,   -0.4,   -0.1,    0.1,   -0.3,   -0.2,   -0.1,    0.2,    0.1,  999.0,   -0.4,   -0.1,  999.0,    0.1,  999.0,  999.0,  999.0,  999.0,  999.0,  999.0,  999.0,  999.0,  999.0,  999.0,  999.0,  999.0
2015/08/26 23:50,  999.0,   -0.8,   -1.9,   -2.2,   -2.6,   -2.5,   -3.0,   -4.4,   -5.0,   -6.3,   -5.5,   -4.7,   -3.8,   -6.9,   -8.2,   -7.1,   -7.0,   -6.3,   -5.8,   -5.1,   -4.7,   -3.7,   -2.7,   -2.3,   -1.5,   -0.6,    0.2,    0.5,    0.6,    0.0,    0.2,    0.3,    0.1,   -0.7,   -1.1,   -1.6,   -1.6,   -0.9,    0.2,    0.5,    0.4,    0.6,   -0.8,   -2.3,   -1.6,   -1.9,   -1.1,   -0.0,   -0.1,   -0.4,  999.0,  999.0,  999.0,  999.0,  999.0,    0.2,   -0.2,   -0.0,   -0.0,   -0.0,   -0.1,    0.2,  999.0,    0.2,    0.2,   -0.1,  999.0,    0.2,  999.0,  999.0,  999.0,  999.0,  999.0,  999.0,  999.0,  999.0,  999.0,  999.0,  999.0,  999.0
